GEFSNGP_500_meanwind_036.txt.gz
Wind_Speed
37 37 37 36 35 34 34 34 36 38 40 44 47 51 55 59 62 65 66 67 68 69 70 68 66 64 64 64 64 64 64 64 65 66 69 71 74 75 71 63 51 39 29 22
35 37 38 39 38 36 35 35 36 39 41 44 47 51 55 59 62 64 65 65 67 68 68 66 64 62 62 63 63 63 63 64 65 67 69 71 74 75 71 62 50 36 26 20
35 38 41 43 43 40 38 37 39 41 43 45 48 52 56 59 62 63 63 64 65 67 67 65 62 61 61 62 62 62 62 63 65 67 69 71 73 74 71 63 52 38 26 19
36 40 44 46 47 46 43 41 42 42 44 46 49 52 56 59 61 62 62 63 64 66 65 63 61 60 60 60 60 60 61 62 64 66 68 70 72 73 72 65 55 44 32 23
37 41 44 48 50 51 49 44 44 45 46 48 50 53 55 58 60 61 61 62 63 64 64 62 60 58 58 58 58 59 60 61 63 65 66 68 70 71 71 67 59 50 39 29
36 40 45 49 52 53 52 49 48 47 48 49 50 52 55 57 60 61 60 61 62 63 63 61 59 57 56 56 56 57 58 60 61 63 65 67 69 70 70 69 64 56 47 36
35 39 43 49 52 55 53 52 51 49 48 49 49 51 54 57 59 60 60 60 61 62 61 60 57 55 55 55 55 55 57 58 60 61 63 66 68 69 69 68 66 61 53 45
37 41 44 48 51 54 54 53 51 49 48 49 50 51 54 57 59 59 59 59 60 61 60 58 56 54 53 53 53 54 55 56 58 59 61 63 65 66 66 66 65 63 58 52
35 39 42 45 49 53 55 54 52 50 49 49 50 51 54 56 58 59 59 59 59 59 59 58 55 53 52 51 52 52 53 54 55 57 59 60 62 63 64 64 63 62 60 56
35 38 42 45 49 53 55 56 54 52 50 50 50 51 53 56 58 58 58 58 58 58 58 57 54 52 50 50 50 50 51 51 53 54 56 57 59 60 61 61 62 61 60 59
35 39 41 45 48 52 55 57 56 53 51 50 50 51 53 55 57 58 57 57 57 57 57 56 54 51 50 49 49 49 49 49 50 52 54 56 57 58 59 60 60 60 60 58
37 40 43 46 48 51 55 57 56 54 52 50 50 51 52 54 56 57 56 56 56 56 55 55 53 51 49 48 47 48 48 48 49 50 51 53 55 56 57 58 59 59 59 58
38 40 43 46 48 51 54 57 57 55 53 51 50 51 52 54 55 56 56 55 55 55 55 54 52 50 48 47 46 46 47 47 48 49 50 51 52 53 54 55 56 56 56 56
39 42 44 46 48 50 53 56 57 56 53 51 50 50 51 53 55 56 55 55 54 54 54 53 52 50 48 46 46 46 46 46 47 48 49 50 51 51 52 52 53 53 54 53
41 43 45 46 48 50 53 56 57 56 54 51 50 50 51 52 54 55 55 54 53 53 52 52 51 49 48 46 45 45 45 45 46 47 48 49 49 50 50 50 51 51 51 51
42 44 45 46 48 50 52 55 57 56 54 51 49 49 50 51 53 54 54 54 53 52 51 51 50 48 47 46 45 44 44 44 45 46 47 47 48 48 48 48 49 49 48 48
43 44 45 46 48 49 52 54 56 56 54 51 49 49 50 51 52 54 54 53 52 51 50 50 49 48 46 45 44 44 44 44 44 45 46 46 47 47 47 47 47 47 47 47
45 46 46 47 48 49 51 53 55 56 54 51 50 49 49 50 52 53 54 53 52 51 50 49 48 47 45 44 44 44 43 43 44 44 45 45 46 46 46 45 45 45 44 44
46 46 46 46 47 48 50 52 54 55 53 51 50 49 49 49 51 52 53 52 51 50 49 48 47 46 45 43 43 43 43 43 43 43 44 44 45 45 44 44 43 43 43 42
46 46 46 46 47 48 50 52 53 55 53 51 50 49 48 49 50 51 52 52 50 49 48 47 46 45 44 43 42 42 42 42 42 43 43 43 44 43 43 42 41 41 41 41
47 46 46 47 47 48 50 51 53 54 53 51 50 49 48 48 49 51 52 51 50 49 47 46 45 45 44 43 42 41 41 42 42 42 42 42 43 43 42 42 40 39 39 39
48 47 47 47 47 48 49 51 52 53 53 51 49 48 47 47 49 50 51 50 49 48 47 46 45 44 43 42 41 40 40 41 41 41 42 42 42 42 41 41 40 38 38 38
50 49 48 48 48 48 50 51 51 53 53 51 49 48 47 47 48 49 49 50 49 47 46 45 44 44 43 42 41 40 39 40 40 41 41 41 41 41 41 40 39 37 37 36
51 50 49 48 48 48 49 50 51 52 52 50 49 47 46 46 47 48 49 49 48 47 46 45 44 43 43 42 41 39 39 39 39 40 40 41 40 40 40 39 38 37 35 35
51 50 49 48 48 48 49 50 50 52 52 50 48 46 45 46 46 48 48 48 47 46 45 44 43 42 42 42 40 39 38 38 38 39 39 40 39 39 39 38 37 36 34 34
51 50 49 48 48 48 49 50 50 52 51 49 47 45 44 45 46 47 48 47 46 45 44 43 42 42 42 41 40 39 38 37 37 37 38 38 38 38 38 37 36 35 34 33
51 50 49 48 48 48 49 50 51 51 50 48 45 44 44 44 45 46 46 46 45 44 43 42 42 41 41 41 40 39 37 37 36 36 37 37 37 37 36 36 35 34 33 32

GEFSNGP_500_meanwind_042.txt.gz
Wind_Speed
18 21 24 28 31 35 39 42 44 45 47 48 48 48 49 50 51 54 56 58 61 63 64 66 67 69 69 69 67 66 64 64 64 64 65 67 68 69 69 69 67 63 56 47
18 20 23 25 29 33 38 42 45 48 49 51 51 51 50 50 52 54 56 58 61 62 64 65 66 68 68 67 66 64 63 63 62 62 63 65 66 67 68 67 67 64 59 52
17 20 23 25 29 32 36 41 46 49 52 53 54 53 52 52 53 54 56 59 61 62 63 64 65 66 66 66 64 63 62 61 61 61 62 63 64 65 66 66 66 65 61 55
19 21 25 29 31 33 36 41 45 49 53 55 56 56 55 54 54 55 57 59 60 61 62 63 64 65 65 65 64 62 61 60 60 60 61 62 63 63 64 65 65 64 62 58
22 24 25 28 32 35 38 40 44 49 53 56 58 59 58 57 56 56 57 58 60 61 62 62 63 64 64 64 63 61 60 59 59 59 60 60 61 62 63 63 64 64 62 60
25 27 29 31 34 37 40 43 46 50 53 57 60 60 60 59 57 56 57 58 60 61 61 62 62 63 63 63 62 61 59 58 58 58 59 59 60 60 61 62 62 63 62 61
26 28 30 32 35 38 40 44 47 50 53 56 59 61 61 60 58 57 57 58 60 61 61 61 61 62 62 62 61 60 58 57 57 57 58 58 59 59 59 60 61 61 61 61
28 29 32 33 36 38 40 43 46 49 52 56 59 61 62 61 59 58 57 58 59 60 60 60 60 61 61 61 61 59 58 57 56 56 57 57 57 57 57 57 58 58 58 58
30 30 33 34 36 38 41 43 46 49 52 55 58 61 63 62 61 59 58 58 59 60 60 59 59 60 60 61 60 58 57 56 56 56 56 56 56 55 55 55 55 55 56 56
32 30 34 35 37 39 42 44 46 49 52 54 58 60 63 63 61 60 58 58 58 59 59 59 59 59 59 60 59 57 56 55 55 55 55 56 55 54 53 53 53 53 54 54
35 34 35 35 38 40 42 44 46 49 52 54 57 59 62 63 62 61 59 58 58 58 58 58 58 58 58 59 58 57 55 54 54 54 54 54 55 54 53 52 53 52 52 52
38 38 39 37 39 42 44 45 47 49 51 54 56 58 61 62 62 61 59 58 57 57 58 57 57 57 57 57 57 56 54 53 52 52 52 53 53 54 54 52 51 51 50 50
41 41 41 40 42 44 45 46 47 49 51 53 55 57 60 61 62 61 60 58 57 57 57 57 56 56 56 56 56 55 54 52 51 51 51 51 51 51 51 50 50 49 48 48
41 43 43 43 44 46 47 47 48 49 51 52 54 56 58 60 61 61 60 58 56 56 56 56 55 55 55 55 55 54 53 52 50 50 50 50 50 50 50 49 47 47 47 46
40 45 46 45 46 47 48 48 49 49 50 52 53 55 57 59 60 61 60 58 56 55 55 55 54 54 53 53 54 54 53 51 50 49 49 49 49 49 49 49 47 45 44 44
41 44 45 46 48 49 49 49 49 50 50 51 53 54 56 58 59 60 60 58 56 54 54 54 53 53 52 52 52 53 52 50 49 48 48 48 48 48 48 47 47 45 43 42
44 44 45 47 48 50 50 50 50 50 50 51 52 54 55 57 58 59 59 58 55 53 53 53 52 51 51 51 51 52 51 50 48 47 46 47 47 47 46 46 46 45 43 42
47 47 48 49 50 51 51 51 51 51 50 50 51 53 54 56 57 58 58 58 55 53 52 52 51 50 50 50 50 50 50 49 48 47 46 45 46 46 45 45 44 44 42 41
53 51 50 51 51 51 52 52 52 51 50 50 50 52 53 55 56 57 58 57 54 52 51 50 50 49 49 48 48 49 49 49 48 46 45 44 44 45 44 44 43 43 41 40
59 56 54 53 53 52 52 53 52 51 50 50 50 51 53 53 55 56 57 56 54 51 50 49 49 48 47 47 47 48 48 48 47 46 45 44 43 43 43 43 42 42 41 39
64 60 57 55 53 53 53 53 53 52 51 50 50 51 52 52 53 55 55 55 53 50 49 48 47 46 46 46 46 46 47 47 46 45 44 43 42 42 42 42 41 41 40 38
66 63 60 57 55 54 55 55 54 53 52 50 50 51 51 51 52 53 54 54 52 49 48 47 46 45 44 44 44 45 45 46 46 45 43 42 41 40 40 40 40 39 39 38
63 62 59 57 56 56 57 57 56 54 52 51 50 50 50 50 51 52 53 53 51 48 47 45 44 43 43 43 43 43 44 45 45 44 43 41 40 39 39 39 38 38 38 37
59 57 55 55 55 56 56 56 56 54 52 50 50 49 49 49 50 51 51 52 50 47 45 44 43 42 41 41 41 42 42 43 44 44 43 41 39 38 38 37 37 37 37 36
56 54 52 52 52 54 55 56 55 53 51 50 49 49 48 48 49 50 51 50 48 46 44 42 41 40 40 40 40 40 41 42 43 43 42 40 38 37 36 36 35 36 36 35
53 51 50 51 52 54 55 54 53 51 50 49 48 48 47 47 48 49 50 49 47 44 42 41 39 39 38 38 38 39 39 40 41 42 41 39 38 36 35 35 34 34 35 35
54 51 50 50 52 53 53 53 51 50 49 48 48 47 46 47 48 49 48 47 45 42 40 39 38 37 37 37 37 37 38 39 40 40 40 39 37 35 34 33 33 33 33 33

GEFSNGP_500_meanwind_048.txt.gz
Wind_Speed
18 17 17 19 20 22 25 28 30 31 34 36 39 43 46 49 53 56 59 61 63 64 64 63 64 65 66 66 67 68 69 70 70 68 67 65 63 62 61 61 61 60 60 60
21 21 21 20 22 24 26 29 31 33 34 37 40 43 46 50 53 56 59 62 64 66 66 65 64 65 66 66 66 67 68 69 69 67 66 64 63 61 60 59 59 59 59 59
24 24 24 23 24 26 27 30 32 34 36 38 40 43 47 49 52 56 59 62 64 66 68 67 66 66 66 66 66 67 68 68 68 67 65 64 62 60 59 58 58 58 57 57
29 28 27 26 27 29 29 31 33 35 37 39 41 43 47 50 52 56 59 62 64 66 68 68 67 66 66 66 66 66 67 68 67 66 65 63 61 60 59 58 57 56 56 56
33 33 31 29 30 32 32 31 34 36 38 40 42 44 46 49 52 55 58 61 64 66 68 69 68 67 66 66 65 66 66 67 67 65 64 62 60 59 58 57 56 55 55 54
37 37 35 32 34 35 35 35 35 37 39 42 44 46 48 50 52 55 58 61 63 66 68 69 69 67 66 66 65 65 66 66 67 65 63 61 60 58 57 56 56 55 54 53
39 40 37 35 36 37 37 38 39 40 41 43 45 47 49 50 52 54 57 60 63 65 67 68 69 68 66 66 65 64 65 66 66 65 62 61 59 57 56 55 55 54 53 52
41 41 38 37 37 39 40 40 40 42 43 44 45 47 48 50 52 54 56 59 62 64 66 67 69 68 67 66 64 64 64 65 65 65 62 60 58 56 55 54 53 52 51 50
43 40 37 37 39 41 43 42 42 43 44 45 46 47 48 49 51 53 55 58 61 63 65 66 68 68 67 66 64 63 63 64 64 64 63 60 57 55 54 53 52 51 49 48
44 38 35 37 40 42 44 44 44 45 45 46 47 48 48 49 50 52 54 57 59 62 64 65 66 68 67 65 64 63 62 63 63 63 63 60 57 54 53 51 50 49 49 48
43 36 34 37 39 41 43 45 46 46 46 47 48 48 49 48 49 51 53 55 58 60 62 64 65 66 67 65 64 62 61 61 62 62 62 60 58 54 52 51 49 48 48 47
43 38 40 39 38 40 43 44 46 47 47 47 49 49 49 48 49 51 52 54 56 59 61 62 64 65 66 65 63 61 60 60 61 61 61 59 56 54 52 50 49 48 47 47
47 45 45 44 41 42 45 45 46 47 48 49 49 49 49 48 49 51 52 54 55 58 59 61 62 63 64 64 63 61 59 59 59 60 60 58 55 52 51 50 49 47 46 45
54 54 53 49 48 47 48 47 48 49 49 49 50 50 50 50 50 51 52 53 54 56 58 59 60 62 63 63 62 60 58 58 58 58 59 58 55 52 49 47 46 46 45 44
62 62 61 58 55 53 52 52 52 51 50 51 51 52 52 52 52 52 53 53 54 55 56 57 58 60 61 62 61 59 57 56 57 57 58 57 55 52 49 46 45 44 43 43
69 69 68 66 62 59 57 57 57 56 54 54 54 54 55 54 54 53 53 53 53 53 54 55 56 58 59 60 60 58 56 55 55 56 56 56 55 52 49 46 43 42 41 41
72 71 71 70 68 65 63 61 60 60 58 57 57 58 58 57 56 55 54 53 52 52 53 53 54 56 57 58 58 56 54 53 53 54 55 55 54 52 49 45 43 41 40 39
70 70 69 69 68 67 65 63 62 61 60 60 60 60 60 59 58 56 55 53 51 51 51 51 52 54 55 57 56 55 53 51 51 52 53 54 53 52 49 45 42 40 39 39
65 65 65 65 65 65 65 64 63 62 61 61 60 60 60 59 58 57 55 53 50 49 49 49 50 52 53 55 54 53 51 50 49 50 51 52 52 51 49 45 41 39 38 38
62 63 63 63 63 63 63 62 62 62 62 62 61 60 60 59 58 57 54 52 50 48 47 47 48 50 51 52 52 51 49 48 47 48 49 50 51 50 48 45 41 39 37 36
61 61 61 62 62 61 61 61 60 59 58 59 59 59 59 58 58 56 53 51 50 47 45 45 46 48 49 50 49 48 47 45 45 46 47 49 49 49 48 45 41 38 37 35
64 65 65 64 63 62 61 60 58 57 56 55 55 57 57 57 56 55 53 51 49 46 43 43 44 46 47 47 46 46 45 43 43 44 45 47 48 48 47 44 41 38 36 34
65 66 67 67 66 64 62 60 57 55 54 53 53 53 55 56 55 54 52 50 48 43 41 41 41 43 44 44 44 43 42 41 41 41 43 45 46 47 46 44 41 37 35 33
66 65 65 66 65 64 62 60 57 54 53 51 51 51 52 54 53 51 50 48 44 40 39 38 39 40 42 41 41 40 40 39 39 39 41 43 44 45 45 44 40 37 35 33
66 65 63 62 61 60 59 56 54 53 51 49 49 49 50 51 50 49 47 44 41 38 37 36 36 38 39 39 38 38 38 37 37 37 39 40 42 43 44 43 40 37 34 32
66 64 60 58 56 54 53 52 51 50 50 50 50 49 49 49 48 47 44 41 38 37 36 34 34 36 36 36 35 35 35 35 35 35 37 38 40 42 42 42 40 36 34 31
63 60 57 55 54 51 50 50 50 50 50 50 50 49 48 48 46 44 41 39 37 35 34 33 32 34 34 33 33 33 33 33 33 34 35 36 38 40 41 41 39 36 33 31

GEFSNGP_500_meanwind_054.txt.gz
Wind_Speed
32 33 34 33 32 32 34 34 37 36 35 35 38 40 41 43 45 46 48 49 51 53 55 57 60 62 65 68 70 72 74 75 76 75 74 74 74 73 71 68 66 63 62 61
35 36 38 37 34 35 37 37 38 39 38 38 41 41 42 44 46 47 49 50 52 53 55 57 60 62 65 67 70 72 74 75 76 75 74 73 73 73 70 67 65 62 61 60
39 39 41 40 36 37 40 40 41 42 41 42 44 43 44 46 47 48 50 51 53 53 55 57 59 61 64 66 69 71 73 74 75 75 74 73 73 72 70 67 64 61 59 59
43 43 45 39 38 39 41 41 43 44 44 46 46 45 45 47 49 50 51 52 53 54 54 56 59 61 63 65 68 70 72 73 75 75 73 72 72 71 70 67 64 61 58 58
45 47 48 42 40 41 43 43 43 45 46 47 48 47 46 48 49 50 51 52 53 53 54 56 58 60 62 64 67 69 71 72 74 74 73 72 71 71 69 67 64 61 58 57
46 48 50 45 42 42 44 45 45 46 47 48 49 50 49 50 51 51 52 52 53 53 53 55 57 59 61 64 66 68 70 71 72 73 73 71 70 70 69 67 64 61 58 56
47 49 51 45 44 44 44 44 46 48 49 50 52 52 53 53 53 53 53 53 53 54 54 54 56 58 61 63 65 67 69 70 71 72 72 70 69 69 68 66 63 60 57 56
48 51 49 45 44 43 43 45 47 50 51 52 53 53 53 53 54 54 54 54 54 55 54 55 56 58 60 63 65 66 67 68 69 70 71 69 68 67 67 65 62 59 56 54
54 53 50 48 45 44 45 47 49 51 52 54 55 55 54 54 54 54 55 55 55 55 55 55 56 58 60 62 64 65 66 67 68 69 69 68 66 66 65 64 62 59 55 53
60 57 53 52 50 48 49 51 52 53 54 56 57 57 56 56 56 56 56 56 56 56 56 57 58 59 60 62 63 64 65 65 66 67 67 67 65 64 64 63 61 58 55 52
65 61 60 58 56 56 56 56 57 57 57 58 59 59 58 58 58 59 59 59 58 58 58 58 59 60 61 62 63 63 63 64 64 65 66 65 64 63 63 63 62 59 55 51
67 64 67 65 62 62 63 62 61 61 61 60 61 62 62 62 61 61 62 62 61 60 60 60 60 61 61 62 62 62 62 62 62 63 63 63 62 61 61 62 61 58 55 50
66 65 67 66 64 63 64 64 64 63 63 63 62 63 64 64 63 63 63 63 63 62 61 61 61 60 61 62 62 62 61 60 60 60 61 61 60 59 59 60 60 58 54 50
59 61 62 61 62 61 63 63 63 63 63 63 63 63 64 64 64 64 63 64 63 62 61 61 61 60 60 61 61 60 59 58 58 58 58 58 58 57 56 57 57 56 53 49
53 55 56 55 55 55 56 57 58 59 59 60 60 60 61 61 61 61 61 62 62 62 61 61 60 60 60 60 59 58 56 56 56 55 56 56 55 54 54 55 55 55 52 49
46 48 50 51 51 52 53 54 54 54 54 55 55 56 56 57 57 57 58 59 59 59 59 59 59 59 59 58 57 55 54 53 53 53 53 53 53 52 52 52 53 53 51 48
40 41 42 44 45 46 48 48 49 49 50 51 51 52 53 53 53 53 54 55 56 57 57 57 57 58 58 57 55 53 51 50 50 50 50 50 50 49 49 50 51 51 50 47
39 40 42 44 45 46 47 49 50 50 49 49 49 50 50 51 51 52 53 53 53 53 54 54 55 56 56 55 53 51 49 48 48 47 47 47 47 46 46 47 49 50 49 46
41 42 43 44 45 46 47 48 48 49 49 50 51 51 52 52 51 51 51 51 51 51 52 53 53 53 53 52 51 49 47 46 45 44 44 44 44 44 44 45 46 48 47 45
46 47 47 48 49 49 49 49 50 51 52 53 53 53 53 53 52 52 51 49 50 51 51 51 52 51 50 49 48 46 45 43 42 41 41 41 41 41 41 42 44 45 46 44
50 51 51 52 53 54 56 57 58 58 57 57 57 57 56 55 54 53 52 51 50 50 50 49 49 48 47 47 46 44 42 41 39 38 38 38 38 38 39 40 41 43 44 43
52 54 55 57 58 59 60 61 62 63 62 62 62 62 61 59 57 55 53 52 51 50 49 48 47 46 45 44 43 42 39 37 36 36 35 35 35 36 36 37 39 41 42 42
56 57 58 60 62 63 63 64 65 66 66 66 66 65 64 62 59 56 53 51 50 49 48 46 45 44 44 42 41 39 37 34 33 33 33 33 33 33 34 35 37 39 40 40
56 58 60 62 64 64 65 65 67 68 69 68 67 65 63 59 56 55 53 50 49 47 46 44 43 43 42 40 38 36 34 31 30 30 30 30 30 31 31 33 34 36 38 39
56 59 61 64 65 66 67 67 68 68 68 67 65 62 59 56 54 51 49 47 46 45 43 43 41 40 38 37 35 33 31 29 28 28 27 27 28 29 29 31 32 34 36 37
57 60 61 62 64 65 66 67 68 67 66 64 59 55 52 50 48 46 44 43 42 41 40 39 38 36 35 33 32 31 28 27 26 25 25 25 26 26 27 29 30 32 34 35
57 59 60 61 61 62 63 64 64 62 58 55 50 46 45 43 41 40 40 38 37 36 36 35 34 32 31 31 30 28 26 24 23 23 23 23 24 24 25 27 29 30 32 34

GEFSNGP_500_meanwind_060.txt.gz
Wind_Speed
34 35 39 40 39 39 42 44 48 48 48 45 44 47 48 48 49 50 50 50 51 52 53 53 54 55 56 56 57 57 58 59 61 63 66 68 70 72 72 72 71 71 70 69
38 37 41 44 41 40 42 45 47 49 49 45 47 49 49 49 49 50 50 51 52 54 54 55 56 57 57 57 57 58 59 60 62 64 66 68 70 71 71 70 70 70 69 68
44 42 45 45 40 41 43 44 45 47 47 47 48 49 49 49 50 51 51 52 54 55 55 56 57 58 58 58 58 59 60 61 62 64 66 68 70 71 70 69 69 68 68 67
47 47 50 45 43 43 44 45 45 46 46 47 48 49 49 50 51 51 52 53 55 56 57 57 58 58 59 58 59 60 61 62 64 65 67 68 69 69 69 68 67 66 66 65
50 52 53 47 44 46 48 48 46 48 48 48 49 50 50 51 52 53 54 56 57 58 58 58 59 59 60 60 60 61 62 63 64 65 67 68 68 68 67 67 66 65 65 64
52 55 56 50 49 50 51 51 50 51 50 51 52 54 53 53 54 55 56 58 59 60 60 60 60 60 60 61 61 62 62 63 64 65 66 67 66 66 66 65 64 63 63 62
55 58 58 52 52 53 53 53 54 54 55 56 57 58 59 59 59 60 60 61 62 62 62 61 61 61 61 61 62 63 63 63 63 64 64 65 64 64 64 63 62 61 61 61
56 59 58 54 55 55 57 58 59 59 59 60 61 61 62 62 62 62 63 64 64 64 63 62 62 62 62 62 62 63 63 63 63 63 62 62 62 62 62 60 60 59 59 59
59 59 58 58 59 59 60 63 63 63 62 62 62 62 62 62 62 62 63 63 63 63 62 62 62 62 62 62 62 62 62 62 62 62 61 60 60 60 59 58 57 57 57 56
59 58 57 58 60 61 62 64 64 64 63 62 62 61 61 61 60 60 60 60 60 60 60 59 59 59 59 60 60 60 60 60 60 59 59 59 57 57 56 56 55 55 54 54
55 53 55 56 58 60 61 61 62 61 61 62 61 60 58 57 56 56 56 56 56 56 55 55 56 56 57 58 58 58 58 58 57 57 56 56 54 54 53 53 52 52 52 51
48 47 51 50 51 52 53 54 55 55 55 54 54 54 53 53 53 53 53 53 53 53 53 53 54 54 54 55 55 55 55 56 56 55 54 53 51 50 50 50 50 50 49 49
44 44 45 44 45 47 47 48 49 49 49 49 50 51 51 51 50 50 51 52 52 52 52 53 53 54 54 54 54 54 54 54 54 53 52 51 48 47 47 47 47 47 47 47
38 39 39 38 39 40 41 42 42 43 44 45 45 46 46 46 46 46 47 48 49 49 50 51 51 52 53 53 53 54 54 52 51 50 49 48 46 44 44 44 44 44 44 44
37 38 38 38 38 38 39 40 41 42 43 44 45 46 46 46 46 46 47 48 48 49 50 50 50 51 51 51 52 52 52 51 49 48 48 46 43 42 41 42 42 42 42 42
38 39 39 40 40 41 42 43 44 45 46 47 47 48 49 49 49 50 51 52 52 51 51 51 51 51 51 51 51 51 50 49 47 47 46 44 41 39 39 40 40 40 39 39
41 41 43 43 44 46 47 48 49 49 49 50 50 50 51 51 52 52 53 54 54 54 55 54 54 53 53 52 51 50 49 48 46 45 43 41 39 37 37 37 38 37 37 37
45 46 47 48 49 50 51 51 52 52 52 52 53 54 55 56 56 56 56 56 56 55 56 56 56 55 54 53 52 50 49 47 46 44 42 39 36 35 35 35 36 35 35 35
48 49 50 51 52 53 53 53 53 53 54 56 57 58 58 59 59 60 60 59 59 59 59 59 59 58 57 56 54 52 49 47 44 42 39 36 34 33 33 33 33 32 32 33
50 51 52 53 54 55 55 55 56 57 58 59 59 59 59 60 61 61 60 60 61 62 61 60 60 59 58 56 54 50 48 45 42 39 36 34 32 31 31 31 31 30 30 30
50 51 52 54 54 55 55 56 58 58 58 58 59 59 59 59 60 60 60 60 61 62 61 60 60 58 56 53 50 47 44 41 38 36 33 31 29 29 28 28 28 27 28 28
50 51 52 53 53 53 54 56 57 57 56 56 57 58 59 59 59 60 61 62 61 60 59 57 56 53 51 48 44 41 38 36 34 32 30 28 27 26 26 26 26 25 26 26
50 51 52 53 53 53 54 55 55 55 55 56 57 58 59 60 61 61 60 59 58 57 55 52 50 48 45 41 39 36 32 30 29 28 27 25 24 24 24 24 23 23 24 24
50 51 51 52 52 52 52 52 52 53 53 54 56 58 60 60 59 59 59 57 55 53 50 47 45 42 38 35 33 30 29 28 27 25 24 23 22 22 21 21 21 21 21 22
50 50 50 50 50 50 50 50 50 51 52 53 55 57 58 58 57 55 55 53 51 49 46 43 39 35 32 30 28 26 25 25 24 23 22 21 20 19 19 19 18 18 19 20
49 49 49 49 49 49 49 49 49 50 51 52 54 55 55 54 54 53 52 49 47 44 40 36 31 28 26 25 24 23 23 22 21 20 20 18 18 17 17 16 16 16 17 19
47 47 47 47 47 48 48 48 49 50 51 53 53 52 52 51 51 49 47 44 41 37 33 29 25 23 21 20 20 20 20 20 20 19 17 17 16 15 15 14 14 14 16 17

GEFSNGP_500_meanwind_066.txt.gz
Wind_Speed
42 41 43 45 43 42 43 44 48 49 50 50 51 54 54 55 55 56 56 56 57 57 57 57 58 58 59 59 60 62 63 63 65 66 66 66 66 67 67 68 67 66 65 66
46 45 47 49 44 43 45 47 49 51 52 50 54 56 57 58 58 58 58 58 58 58 58 59 59 60 60 60 61 63 63 64 65 65 65 66 66 67 67 66 65 64 64 65
51 50 52 50 45 46 48 48 50 52 54 55 57 57 58 59 59 60 60 60 60 59 60 61 61 61 61 62 63 64 64 64 65 65 65 65 65 64 63 63 63 62 63 64
54 54 55 51 49 49 51 51 52 54 55 57 58 58 59 60 60 61 61 61 60 60 61 61 61 62 62 62 63 63 63 64 64 63 63 62 62 61 61 60 59 60 60 60
55 56 56 52 51 53 55 54 53 56 58 59 59 59 59 60 61 62 62 62 62 62 61 60 60 60 60 61 61 61 61 61 60 60 60 59 59 58 58 58 57 57 57 58
52 55 56 53 53 54 55 56 56 57 58 59 59 60 58 59 60 61 61 61 61 60 59 58 58 59 59 59 58 58 58 58 57 57 57 57 57 56 56 55 55 55 55 55
51 53 52 52 53 54 55 56 57 58 59 60 60 61 60 58 57 57 57 57 57 58 58 58 58 58 57 56 56 56 55 55 55 56 56 56 55 54 54 53 54 53 53 52
49 50 51 51 53 53 55 56 57 58 58 59 58 58 57 56 54 53 53 54 55 54 54 54 55 55 55 55 55 54 54 53 53 53 53 53 53 52 52 52 53 51 50 50
47 48 48 50 52 53 54 55 55 55 55 55 54 54 53 52 51 50 50 50 50 50 50 51 53 54 54 53 52 51 51 50 51 51 50 50 50 50 50 50 49 48 47 47
47 47 47 49 50 50 51 51 51 52 52 52 52 51 50 49 49 49 49 49 49 49 50 51 52 51 51 51 51 51 52 52 52 52 52 52 51 50 50 50 47 45 45 45
48 48 48 47 48 48 49 49 49 50 50 50 49 49 48 48 48 48 48 48 49 50 50 50 49 50 51 53 53 53 53 53 53 53 53 52 52 51 50 49 47 45 44 44
49 49 51 49 49 50 50 50 50 49 49 49 49 49 49 49 49 48 49 49 50 50 50 50 51 52 53 54 54 54 55 55 55 54 54 53 52 51 49 48 45 43 43 43
51 51 52 51 51 51 51 51 51 51 50 49 49 50 50 50 50 51 51 51 52 52 52 53 53 54 55 56 56 56 56 57 57 56 55 53 51 50 49 46 44 42 42 41
54 54 53 53 53 53 52 52 51 51 51 51 51 51 51 51 52 52 53 53 53 54 55 55 56 56 57 57 57 58 59 60 59 58 56 53 51 50 48 46 43 41 40 39
56 56 55 54 54 54 53 52 51 51 51 51 52 52 53 53 53 53 54 55 55 55 56 57 57 58 59 59 60 60 61 60 59 58 56 53 51 50 47 45 42 40 38 38
57 56 56 55 54 53 53 52 52 52 52 52 53 53 54 54 54 55 56 57 56 56 57 58 58 59 60 61 62 62 61 60 59 57 54 52 50 48 45 42 40 38 36 36
56 55 54 53 53 53 53 53 53 53 53 53 53 54 54 53 54 55 55 55 56 57 58 58 59 60 61 62 62 61 60 58 58 54 52 50 47 45 42 39 37 35 33 33
54 53 53 53 53 53 53 53 53 52 53 53 53 54 54 54 54 54 54 54 55 56 57 58 59 60 61 61 60 58 58 56 55 52 49 46 43 41 39 36 33 31 30 30
51 51 51 51 52 52 52 52 52 52 52 52 52 52 52 53 53 53 53 54 55 55 55 57 58 59 58 57 57 56 56 55 53 49 46 42 39 36 33 31 29 27 26 27
49 48 49 49 50 50 50 50 50 50 50 51 51 51 51 52 52 52 52 52 54 55 55 56 57 57 56 55 55 54 54 52 49 45 41 37 33 30 28 26 24 23 24 25
46 47 47 48 49 49 49 50 49 49 49 49 49 49 49 49 49 49 50 50 51 53 54 55 55 54 53 53 53 52 50 47 44 40 36 31 28 25 24 22 21 21 22 23
45 46 46 47 48 47 47 48 48 48 48 48 48 48 48 47 47 47 48 50 50 51 52 52 52 51 52 51 50 47 44 42 39 34 29 26 23 21 20 20 19 19 19 20
45 45 46 46 46 46 46 46 46 46 46 46 46 46 46 45 45 46 46 47 49 50 50 50 50 50 50 49 46 43 40 36 33 29 25 22 19 18 18 17 16 16 16 17
44 44 44 44 44 44 44 43 44 43 43 43 43 43 43 43 43 45 46 47 48 48 48 48 48 48 47 45 42 38 34 31 28 26 22 18 17 15 14 14 13 13 14 15
42 42 42 42 42 42 41 41 40 40 40 40 40 41 42 42 43 44 45 45 46 46 46 45 44 44 42 40 37 34 31 28 25 21 18 15 13 11 11 11 11 11 11 13
42 41 41 41 41 41 40 39 38 38 38 38 38 39 40 41 42 43 44 44 44 44 43 42 42 41 39 36 33 31 28 24 21 17 14 12 10 9 8 8 8 9 10 11
42 42 42 41 41 41 40 39 38 38 38 38 37 37 38 39 40 41 42 42 42 41 40 40 39 38 35 32 29 27 23 20 16 12 10 9 7 7 7 7 7 7 8 10

GEFSNGP_500_meanwind_072.txt.gz
Wind_Speed
37 37 39 40 39 38 41 42 46 45 46 46 48 49 50 50 50 50 51 51 51 51 50 50 49 49 49 50 50 50 51 51 52 53 54 55 56 57 57 57 57 57 56 56
37 36 38 39 36 37 40 41 43 44 44 45 48 48 49 49 50 50 50 50 49 49 49 49 49 48 48 49 50 51 51 52 53 54 55 55 56 56 56 55 55 55 55 55
38 37 38 36 35 37 38 39 41 42 44 45 46 46 46 47 48 48 47 47 46 47 47 47 48 48 48 49 50 51 52 53 53 53 54 54 54 53 53 53 54 53 53 52
39 39 39 36 35 37 38 39 40 41 42 43 44 44 45 46 46 46 45 46 46 47 47 48 49 49 49 50 50 51 51 51 51 52 52 52 52 52 52 52 52 52 51 52
39 40 39 35 37 39 41 41 42 43 43 44 44 44 45 46 46 46 46 47 48 48 49 48 49 49 49 50 50 51 50 50 51 51 51 51 51 51 51 51 51 51 51 51
37 40 41 40 42 44 45 46 45 46 46 46 46 47 46 47 47 47 48 49 49 49 49 49 49 49 50 50 51 50 50 50 50 51 51 51 51 51 51 51 51 52 51 51
40 43 43 44 46 47 48 49 49 49 49 50 50 51 50 51 51 50 50 50 50 50 51 50 50 50 50 51 50 50 50 51 51 51 51 51 51 52 52 53 53 53 53 53
43 45 45 47 49 50 52 52 53 53 53 53 54 54 54 54 54 53 53 53 53 53 52 52 51 51 52 52 52 51 51 51 51 52 52 53 54 55 55 55 55 54 54 54
47 48 48 50 53 54 56 56 56 56 57 57 58 57 57 57 57 56 56 56 55 54 53 53 53 53 54 53 53 52 51 52 52 53 54 55 56 57 56 56 56 55 55 54
51 50 51 54 56 57 58 59 59 60 61 61 61 61 61 60 59 58 58 57 56 55 54 54 54 55 55 55 54 54 53 54 55 56 56 57 57 58 58 58 57 56 55 54
55 55 57 58 59 60 61 62 63 63 64 64 64 63 63 62 61 60 58 57 56 56 55 55 55 56 56 56 55 55 56 56 57 57 58 58 58 59 59 58 58 56 55 54
60 60 63 63 64 65 66 66 66 66 66 66 65 65 64 62 61 60 58 57 56 56 56 56 56 56 56 56 56 57 57 57 57 57 58 58 59 59 59 58 57 55 54 53
63 64 66 66 67 68 69 69 69 68 68 67 66 65 63 62 60 59 58 57 56 56 57 57 56 56 57 57 57 57 57 57 57 58 58 59 59 59 58 57 55 54 52 51
67 68 68 68 69 69 69 69 69 68 67 65 64 63 61 59 58 57 57 57 56 56 56 56 55 56 56 57 57 57 57 57 58 58 59 59 59 58 57 55 52 50 49 47
70 70 70 70 69 69 68 67 66 64 63 62 61 60 59 58 56 56 56 56 55 55 55 55 55 55 56 56 56 56 56 56 57 58 58 57 56 55 53 51 49 47 45 43
69 69 68 67 65 64 63 62 61 59 58 58 57 56 56 55 55 54 55 55 55 54 54 54 54 54 54 54 54 54 54 55 56 56 55 54 52 50 48 47 45 43 41 38
65 63 62 61 60 58 58 57 56 55 55 54 54 54 53 53 53 53 53 53 53 52 53 52 52 52 52 52 52 52 52 53 53 53 52 51 49 46 45 43 40 39 35 32
59 57 56 55 54 53 52 51 52 52 52 52 52 52 52 52 52 51 50 50 50 50 51 51 51 50 50 50 50 51 51 51 51 50 49 47 45 43 41 39 37 34 30 28
53 52 51 50 50 49 49 49 50 50 50 50 50 50 50 50 51 50 49 49 49 49 48 49 49 48 48 48 49 49 49 49 48 47 46 44 42 40 39 35 32 29 26 25
48 47 47 47 47 47 48 48 48 49 49 49 49 48 48 49 49 48 47 47 48 47 46 46 45 45 46 46 47 47 47 47 46 44 43 42 39 37 34 30 27 26 24 22
44 44 45 45 45 46 47 48 48 48 48 48 48 47 47 46 46 46 45 44 44 44 44 44 44 44 44 44 45 45 46 44 43 42 40 38 35 32 29 27 25 24 21 19
43 44 44 45 46 46 47 47 48 48 47 47 47 46 46 45 44 43 43 43 42 42 42 42 42 42 42 43 43 43 43 41 40 39 37 35 32 30 27 25 24 21 18 17
44 44 45 46 46 45 45 46 47 47 46 46 45 44 44 43 42 41 40 40 41 40 40 41 41 40 41 41 41 41 40 39 38 36 34 32 29 26 23 21 20 17 16 16
44 44 45 45 45 44 44 44 44 44 44 43 43 43 43 41 40 40 40 39 39 39 39 39 39 38 39 40 40 39 37 36 34 32 31 28 25 22 20 19 17 14 14 14
43 43 43 43 43 43 43 43 42 42 42 41 41 41 41 40 38 38 37 37 37 37 36 36 36 36 37 38 38 36 34 32 30 29 26 24 22 20 18 15 13 12 12 11
42 43 42 42 42 42 42 42 41 41 40 39 38 39 39 38 37 36 36 35 35 35 34 34 34 34 35 35 35 33 30 28 26 25 23 21 19 17 15 13 11 10 10 10
42 41 41 40 41 41 41 41 41 40 40 39 37 37 36 36 35 34 34 33 33 32 32 32 33 33 32 32 31 29 26 25 24 22 20 18 16 14 12 10 9 9 9 10

GEFSNGP_500_meanwind_078.txt.gz
Wind_Speed
29 29 30 30 29 30 33 35 38 36 36 36 37 38 39 40 42 43 44 45 46 47 48 49 50 52 53 54 54 55 55 55 56 56 56 57 57 57 57 58 59 59 60 60
29 29 31 30 29 31 33 35 37 37 37 38 39 40 41 43 45 47 47 48 50 51 52 53 54 55 55 56 56 57 57 57 57 57 57 58 58 57 58 59 59 59 59 59
30 30 31 30 30 32 33 34 36 37 39 40 42 43 45 46 49 50 51 52 53 55 56 57 58 59 59 59 59 59 59 59 59 59 60 59 59 59 59 59 59 59 59 59
33 32 32 30 31 33 35 36 38 40 42 44 46 47 48 50 53 54 56 57 58 59 60 61 61 62 62 63 63 62 62 62 61 61 61 61 60 60 60 59 59 59 60 60
34 35 35 32 34 37 40 41 42 44 46 47 49 51 52 54 57 58 60 62 63 64 65 65 66 66 66 66 65 65 64 63 62 62 62 61 60 60 60 60 59 59 59 60
36 38 38 37 39 42 45 47 48 49 51 53 55 57 57 59 61 63 65 66 67 68 69 69 70 70 69 67 66 65 64 63 62 62 62 61 61 61 60 60 59 59 59 59
37 41 41 42 45 47 49 51 53 55 57 58 60 62 64 65 67 69 70 71 72 72 73 72 72 71 70 68 66 65 64 63 62 62 62 61 61 60 60 59 59 59 59 59
39 42 44 47 49 51 53 55 57 59 61 62 64 66 68 70 72 73 74 75 75 75 74 73 72 71 69 67 66 64 63 62 61 61 61 61 60 59 59 59 58 58 58 57
44 46 48 51 54 56 58 60 62 63 65 67 69 70 72 74 75 76 77 77 76 76 74 72 70 69 68 65 64 62 61 61 60 60 59 59 59 58 57 57 57 57 57 56
48 49 51 54 57 59 61 63 65 67 69 71 73 75 76 77 78 78 77 76 75 73 71 68 67 66 65 63 62 61 60 59 58 57 57 56 56 56 56 55 55 56 56 55
53 54 57 59 61 63 65 67 69 71 73 75 77 77 78 79 78 77 75 73 71 69 67 65 63 62 62 61 60 59 58 57 56 55 54 53 53 53 53 53 54 55 54 53
57 59 61 62 64 66 68 70 72 74 75 77 78 78 78 77 75 73 71 69 67 65 63 61 60 59 59 58 58 56 55 54 53 52 52 51 50 50 50 51 52 52 51 50
60 62 64 65 68 70 72 73 74 76 77 77 76 76 75 73 71 69 67 65 64 62 60 59 58 57 57 56 55 54 53 51 51 50 50 49 49 49 48 48 49 49 48 47
63 65 66 68 70 71 73 74 74 75 75 74 73 72 71 69 67 65 63 62 61 59 58 58 57 55 54 53 52 51 50 50 49 49 48 48 48 48 48 48 46 45 45 44
66 68 69 70 71 72 72 73 72 72 72 70 69 68 67 65 63 61 60 60 58 57 56 56 55 53 52 51 50 49 48 47 46 46 46 46 46 46 46 46 45 43 42 41
67 68 69 70 70 71 71 70 69 69 68 66 65 64 62 61 60 58 58 57 56 54 54 53 52 50 49 48 47 46 45 44 44 44 44 44 45 45 44 43 43 42 40 39
67 67 67 67 67 67 66 66 65 64 63 61 60 59 59 58 57 55 55 54 53 53 52 51 49 48 47 46 45 44 43 42 43 43 43 43 43 43 43 42 41 40 38 36
66 66 66 65 64 64 63 62 61 59 58 57 56 56 56 55 54 53 52 50 50 49 48 47 46 45 44 43 43 42 42 41 41 41 41 41 42 42 41 40 40 38 35 33
63 62 62 61 60 60 59 57 56 56 55 55 54 53 53 52 52 51 49 48 47 45 43 43 43 42 41 41 41 41 41 41 40 40 40 40 40 39 38 37 36 34 31 29
60 59 57 56 56 55 55 54 53 53 53 53 52 52 51 50 49 47 46 45 45 44 41 41 40 39 39 39 40 40 40 39 39 38 38 39 38 37 35 33 32 30 28 28
57 55 54 53 52 51 52 52 52 51 51 50 50 49 48 46 46 45 44 43 41 41 40 40 39 38 38 38 38 38 38 37 37 37 38 37 36 34 32 30 29 28 27 26
53 52 52 51 50 49 49 49 49 49 48 48 47 47 46 44 43 42 42 42 40 39 38 38 38 37 37 36 36 36 36 36 36 36 36 36 34 31 30 28 27 27 25 24
51 50 50 49 48 47 46 46 47 47 46 46 46 45 44 43 42 42 40 39 38 37 37 36 36 35 34 34 34 34 35 35 35 35 35 33 31 29 27 26 25 24 23 22
50 49 48 47 47 46 45 44 44 44 44 44 44 44 43 42 40 40 39 38 37 36 35 35 34 33 33 32 32 33 34 34 34 34 33 30 27 26 25 24 23 22 21 20
49 48 46 46 45 45 44 43 42 42 42 42 42 42 42 41 40 38 37 36 35 34 33 33 32 31 31 31 31 32 33 33 32 32 29 26 25 24 23 22 21 20 20 19
47 46 45 45 44 44 42 41 41 40 41 40 40 40 39 39 38 37 36 35 34 32 31 30 29 29 29 29 30 32 32 31 30 28 26 24 23 22 21 20 20 19 19 19
45 44 44 43 42 41 40 40 39 39 39 39 38 38 37 37 37 36 34 33 32 30 29 28 28 28 28 29 29 30 30 29 27 25 23 22 21 20 19 19 18 18 18 19

GEFSNGP_500_meanwind_084.txt.gz
Wind_Speed
28 29 29 27 26 27 30 31 31 28 29 29 30 31 32 34 36 39 41 44 46 48 51 53 55 58 60 62 64 66 68 70 71 72 73 73 73 73 73 72 72 71 71 71
29 29 30 28 27 29 30 31 33 32 32 32 32 33 35 37 40 43 45 48 51 53 56 58 60 63 65 67 69 71 73 75 76 77 77 76 76 75 74 73 72 71 71 71
31 30 31 30 29 30 31 32 33 33 33 34 35 36 38 41 44 46 49 52 55 58 61 63 66 69 71 73 75 77 78 79 80 79 78 77 76 74 73 72 71 70 69 68
34 32 32 30 30 31 32 32 33 34 35 36 38 40 42 45 48 51 54 57 60 63 66 68 71 73 76 78 79 81 81 81 80 78 77 75 73 72 70 69 68 67 65 65
36 34 32 30 32 33 34 34 35 36 38 39 41 44 46 50 53 56 59 62 65 68 70 73 75 78 80 81 82 82 81 79 77 75 73 71 69 68 66 65 63 63 62 61
36 37 35 33 34 34 36 37 37 38 40 43 45 48 50 54 57 60 63 66 69 72 75 77 79 81 82 82 82 81 78 76 73 71 69 67 65 63 62 61 60 59 58 57
37 38 37 36 37 37 38 39 40 42 44 47 50 53 56 59 62 65 68 71 73 76 78 80 82 82 82 81 79 77 74 71 69 66 64 63 61 60 59 57 56 55 53 53
36 38 39 39 39 39 40 42 44 46 49 52 55 57 60 63 66 69 72 74 77 79 80 80 81 81 79 77 75 73 70 66 64 61 60 59 58 56 55 54 53 52 50 50
37 38 40 41 41 42 44 46 48 51 53 56 59 61 64 66 69 72 75 77 79 80 80 79 78 77 75 73 71 68 65 62 59 57 56 56 54 53 51 51 50 49 48 47
38 39 41 42 43 45 48 50 52 55 57 60 62 65 67 70 73 75 77 78 79 79 78 76 74 72 71 69 67 64 61 57 55 54 52 51 50 49 48 48 47 46 46 46
39 40 43 44 46 48 51 53 55 58 61 63 65 68 70 72 74 76 77 77 77 76 74 72 70 68 66 64 62 59 56 54 51 50 49 48 47 46 46 46 46 46 45 45
41 42 44 46 48 51 53 55 57 60 62 65 67 69 71 73 74 75 76 76 75 73 70 68 66 64 62 60 58 56 53 50 49 47 46 45 44 43 43 44 44 44 44 44
44 45 47 49 51 53 55 57 60 62 65 67 69 71 72 73 74 74 74 73 71 69 67 65 63 61 58 57 54 52 50 48 47 45 44 43 43 42 40 40 41 41 41 41
46 48 50 51 53 56 58 60 62 64 66 68 70 71 72 73 72 71 70 68 67 65 63 62 59 57 55 53 51 49 48 47 45 43 42 42 42 41 41 39 38 38 39 40
49 50 52 54 56 57 59 62 64 66 67 68 69 70 71 70 69 67 65 64 63 61 60 58 55 53 52 50 48 47 45 44 43 42 42 42 41 41 40 39 39 38 37 37
51 52 54 55 57 59 61 63 65 66 67 68 69 69 68 67 65 63 62 61 60 58 56 54 52 50 49 48 46 45 44 43 42 41 41 41 41 40 39 39 38 37 35 35
52 53 55 57 58 60 62 64 65 67 67 68 68 67 66 64 62 60 59 57 56 55 53 52 50 48 47 46 45 43 43 42 41 41 41 40 40 39 38 37 36 34 34 33
53 55 57 58 60 61 62 63 65 66 66 66 66 64 62 61 59 57 55 53 52 50 50 50 48 47 45 45 44 43 42 41 40 39 39 39 38 37 36 35 35 33 33 33
54 55 57 58 60 62 63 63 64 64 64 64 62 61 59 57 56 54 52 51 50 48 47 47 46 45 44 44 43 42 41 40 39 38 38 37 36 36 35 35 33 32 31 31
55 56 58 59 60 62 62 63 63 63 62 61 59 57 55 54 53 51 49 48 49 48 46 45 45 44 43 42 41 40 40 39 38 37 36 35 35 35 34 33 32 31 30 30
56 57 58 60 60 61 62 62 62 61 59 58 57 54 52 50 50 49 48 46 46 46 45 44 44 43 42 41 40 39 38 37 36 35 34 34 34 34 33 32 30 29 28 28
57 58 59 60 61 61 60 60 60 60 57 55 54 53 50 49 48 47 47 46 44 44 43 43 42 42 41 40 38 37 35 34 33 34 34 33 33 32 31 29 28 27 27 26
58 59 60 61 61 61 60 59 59 57 55 53 52 50 48 47 46 45 44 43 43 43 42 41 41 40 39 38 36 34 33 32 32 33 33 32 31 30 29 28 27 26 26 25
58 59 60 60 61 60 58 57 56 54 52 51 49 48 47 45 44 43 43 42 42 42 41 41 40 39 38 36 34 32 32 32 32 31 31 30 29 29 28 27 26 25 25 24
58 59 59 59 59 58 56 54 52 50 49 47 46 46 45 44 42 41 40 41 41 41 41 40 39 38 36 34 32 31 31 31 30 30 29 29 28 28 27 25 24 24 23 22
57 58 58 57 57 55 54 52 49 47 46 45 43 42 42 41 40 39 39 40 40 40 40 38 37 36 34 32 30 30 29 29 29 28 28 28 27 27 25 24 23 22 21 21
56 56 56 55 54 53 51 49 47 45 44 43 41 40 39 38 38 38 38 39 39 39 38 36 35 33 31 29 28 28 28 27 27 26 27 26 26 25 24 23 22 21 21 21

GEFSNGP_500_meanwind_090.txt.gz
Wind_Speed
32 32 34 34 33 34 36 36 37 34 32 31 34 36 36 37 38 39 40 42 43 45 46 48 50 53 55 58 61 63 66 68 71 74 77 79 81 83 85 87 87 87 85 83
34 35 37 37 34 36 37 37 38 37 35 35 35 36 38 39 40 41 42 44 46 48 49 52 54 57 60 62 65 68 70 73 76 78 81 83 85 86 87 87 85 84 81 79
37 36 39 38 35 36 37 37 38 38 37 37 37 38 39 40 41 43 44 46 48 50 53 55 58 61 63 66 69 72 74 77 80 82 84 86 87 86 85 84 81 79 76 73
40 39 41 38 37 37 38 38 38 38 38 39 39 39 41 41 43 45 47 49 51 53 56 59 62 64 67 70 73 75 78 80 83 85 86 86 85 83 81 79 76 73 70 67
42 43 44 40 39 39 40 39 38 39 39 40 40 41 42 44 46 48 50 52 54 57 59 62 65 68 70 73 76 79 81 82 84 85 85 83 81 78 76 73 70 67 64 61
44 46 46 42 40 40 41 41 38 39 40 41 41 42 44 46 48 50 52 55 57 60 62 65 68 71 73 76 79 81 82 83 83 83 82 79 77 74 71 68 65 61 57 56
44 46 46 43 42 41 41 41 40 40 41 41 42 44 46 48 50 52 55 57 60 62 65 68 71 73 76 79 81 82 83 82 81 80 77 75 72 69 65 62 59 55 53 52
44 46 46 44 44 43 42 42 42 42 42 43 44 46 48 50 52 55 57 60 62 65 67 70 74 76 79 81 82 82 81 80 78 75 73 70 67 63 60 57 54 52 50 48
45 45 45 44 44 44 43 43 43 43 43 44 46 48 50 52 55 57 60 62 65 67 70 73 76 78 80 81 81 80 78 76 74 71 68 64 61 58 55 53 52 50 48 46
45 44 44 44 44 44 44 44 44 44 45 46 48 50 53 55 57 60 62 65 67 70 72 74 76 78 80 80 80 78 75 72 69 66 62 59 57 55 53 51 50 48 46 45
43 43 44 44 44 44 44 44 44 45 47 49 51 53 55 57 60 62 65 67 70 72 74 76 77 78 78 78 77 75 71 68 64 61 58 55 53 51 50 49 48 47 46 45
42 42 43 43 44 45 45 45 46 47 49 51 53 55 58 60 62 65 67 69 72 74 75 76 77 77 76 76 74 71 67 63 60 57 54 52 50 47 46 47 46 46 46 45
42 43 44 44 45 45 45 46 47 49 51 54 56 58 60 62 64 67 69 71 73 75 76 76 76 75 74 72 69 66 63 60 57 54 52 50 48 46 44 43 43 44 45 45
43 44 44 44 45 45 46 47 49 52 54 56 58 60 62 64 66 68 70 72 74 74 75 75 75 73 71 69 65 62 59 56 54 52 50 49 47 45 44 42 40 40 42 43
43 43 44 44 45 46 47 50 52 54 56 58 60 62 64 66 68 69 71 72 73 74 74 74 72 70 67 64 61 58 55 53 51 49 48 48 46 44 43 42 41 40 40 40
42 43 44 45 46 47 49 52 54 56 58 59 61 63 65 67 69 70 71 72 73 73 73 72 69 66 63 60 57 55 52 51 50 48 47 46 44 43 42 41 40 40 39 38
42 43 44 46 48 50 52 54 56 58 59 61 63 65 67 68 69 70 71 72 72 72 71 69 66 62 59 57 54 52 50 48 47 47 46 45 43 41 40 40 39 38 38 38
43 44 46 48 50 52 54 56 58 60 61 63 65 66 67 69 70 71 72 71 70 69 67 65 61 58 55 53 51 49 48 46 45 45 44 43 41 40 39 38 38 38 37 36
45 47 48 50 52 54 56 58 60 61 63 65 66 67 68 69 71 71 71 70 68 66 62 59 56 53 51 50 49 47 46 45 44 43 42 41 40 39 38 37 37 36 35 35
47 49 50 52 54 56 58 60 61 63 64 65 67 67 68 69 70 70 69 67 65 62 58 55 52 50 48 47 46 45 44 43 42 41 40 39 38 37 37 36 36 35 34 34
49 51 53 55 56 58 60 61 63 64 65 66 67 68 69 69 69 68 67 63 60 58 54 52 49 47 45 44 43 43 42 41 40 39 38 37 36 36 35 35 34 33 34 33
51 53 55 56 58 59 60 62 64 65 66 67 68 69 69 68 67 65 63 61 57 54 51 48 46 44 43 42 41 41 40 39 38 37 35 35 35 34 33 33 32 32 32 32
53 55 56 58 59 60 62 63 65 66 66 67 68 69 68 67 65 63 59 56 53 50 47 45 43 42 41 40 40 39 38 37 36 34 34 33 33 33 32 32 31 31 31 32
55 56 58 60 61 62 63 64 65 66 67 68 68 67 66 64 61 59 56 52 49 46 43 42 41 40 39 39 38 37 37 35 34 33 32 32 31 31 31 31 30 30 30 31
57 58 60 61 62 63 64 65 66 66 66 65 64 63 62 60 57 53 50 47 45 43 41 39 39 39 38 38 37 35 35 34 33 31 30 30 30 30 30 30 29 29 29 30
59 60 61 62 63 64 65 65 65 64 63 62 60 58 57 55 53 50 47 44 42 41 39 38 37 37 37 36 35 34 33 32 30 29 29 28 28 28 29 29 28 28 28 28
60 60 61 62 63 64 64 64 63 62 62 60 57 55 54 52 49 47 44 42 40 39 37 37 36 36 35 34 33 32 31 29 28 27 27 27 27 27 27 27 27 27 27 27

GEFSNGP_500_meanwind_096.txt.gz
Wind_Speed
28 29 29 29 29 29 30 30 33 31 31 31 35 36 36 37 37 38 39 39 40 41 42 43 44 45 46 48 50 52 53 55 57 60 62 65 68 70 73 75 78 80 81 83
31 31 32 32 30 30 31 32 34 35 33 33 36 37 38 39 39 39 40 41 42 42 43 44 45 47 48 50 52 54 56 58 61 63 66 68 71 73 76 78 80 81 82 83
33 32 35 34 30 31 33 34 35 36 36 37 37 38 39 39 40 41 42 42 43 44 45 46 47 49 50 52 54 57 59 61 64 66 69 71 74 76 78 80 81 82 81 80
35 35 37 34 32 33 35 35 36 38 39 39 39 39 40 40 41 41 42 43 44 45 46 47 49 51 52 55 57 59 61 64 67 69 71 74 76 78 80 81 81 80 79 76
38 38 39 36 34 34 36 36 36 38 39 39 40 41 41 41 42 43 43 44 45 46 47 49 51 52 54 57 59 62 64 66 69 72 74 76 78 79 80 80 79 77 75 72
39 40 41 38 36 36 38 38 36 38 39 40 40 41 41 42 42 43 44 45 46 47 49 50 52 54 56 59 61 64 66 69 71 74 76 78 79 80 80 79 76 74 70 67
40 42 42 40 39 39 40 40 40 39 39 40 40 41 41 42 42 43 44 46 47 48 50 52 54 56 58 61 64 66 68 70 73 75 77 78 79 79 78 76 73 70 67 63
40 42 42 41 41 41 41 41 41 41 41 41 41 41 41 42 43 44 46 47 48 49 51 54 56 58 61 63 66 68 70 72 74 76 78 79 78 77 75 73 69 66 62 59
40 41 41 42 42 42 42 42 42 42 42 41 41 40 41 42 43 45 47 48 49 51 53 56 58 61 63 65 68 69 71 74 75 77 77 78 76 74 72 69 65 62 59 55
41 41 41 42 42 43 43 43 43 43 42 42 42 41 42 44 45 46 48 50 51 53 55 57 60 63 65 68 69 71 73 75 76 77 77 75 74 71 68 65 61 58 55 52
41 41 42 42 43 43 43 43 43 43 43 43 43 43 44 45 47 48 50 51 53 55 57 60 62 64 67 69 71 73 75 76 77 76 76 73 70 67 64 60 58 55 52 50
40 40 41 42 43 43 43 43 43 44 44 44 44 45 46 47 49 50 52 53 55 57 60 62 64 67 69 71 73 75 75 76 76 75 73 71 67 63 59 57 54 52 51 49
40 40 41 41 42 42 42 43 44 45 45 45 46 47 48 49 50 52 53 55 57 60 62 64 67 69 71 73 74 75 76 76 75 74 71 68 64 60 56 52 50 49 48 47
41 41 41 41 41 42 42 43 44 44 45 46 47 48 49 50 52 53 55 58 60 62 64 67 69 70 72 74 74 75 75 75 73 71 68 64 61 58 54 51 47 45 45 45
40 41 41 41 42 42 43 43 44 45 45 47 48 49 50 52 53 55 58 60 62 64 66 69 70 71 73 74 74 74 74 73 70 67 63 60 57 54 52 49 46 44 42 42
41 41 41 42 42 43 43 44 44 45 46 48 49 51 52 54 56 58 60 62 64 66 68 70 71 72 73 73 74 73 72 69 66 63 59 56 54 52 49 47 45 43 41 40
40 41 41 42 42 42 43 44 45 46 47 49 50 52 54 55 57 59 62 64 66 68 70 72 72 72 73 73 73 71 68 65 62 59 56 53 51 49 47 45 44 42 41 40
39 39 40 40 41 42 43 44 45 47 48 50 52 53 55 57 60 62 64 65 67 69 70 72 72 72 72 72 70 67 64 61 58 56 53 50 48 47 45 44 42 41 39 38
37 38 39 40 41 42 43 44 46 48 50 52 54 56 58 60 62 64 66 67 69 70 70 71 71 71 70 69 66 63 60 57 55 53 50 48 46 45 43 42 41 40 38 37
37 38 39 40 41 43 44 46 48 50 52 54 56 58 60 62 64 66 67 68 70 72 71 71 70 69 67 64 61 59 56 54 52 50 47 45 44 43 42 40 39 38 37 36
37 39 40 42 43 45 47 49 51 53 54 56 58 60 62 64 66 67 69 69 70 71 70 69 68 65 63 60 58 55 53 51 49 47 45 43 42 41 40 39 37 36 35 34
39 40 42 44 45 47 49 51 53 55 56 58 60 62 64 66 67 68 69 71 70 70 69 66 64 62 60 57 54 52 50 48 46 44 43 41 40 39 38 36 35 34 34 33
41 43 44 46 48 49 51 53 55 57 58 60 63 65 67 68 69 70 70 70 69 68 66 63 61 59 57 54 51 49 47 45 44 42 41 39 39 37 35 34 33 32 32 31
44 45 47 49 50 52 53 55 57 59 61 63 65 67 68 69 70 70 70 68 66 65 63 61 59 56 53 51 48 46 44 43 41 39 38 37 36 35 34 32 31 31 30 29
46 48 49 51 53 54 56 58 60 62 64 65 66 68 69 70 69 68 67 65 63 62 60 58 56 53 50 47 45 43 42 40 39 37 35 35 34 33 31 30 29 29 28 28
49 50 52 54 56 58 59 61 63 65 66 66 66 67 68 68 67 65 64 62 60 58 56 54 51 49 46 44 42 40 39 37 36 35 33 33 32 31 29 28 28 27 27 27
51 53 55 57 59 61 63 64 65 66 66 67 67 66 66 64 63 62 60 58 56 54 52 50 47 44 42 40 38 37 35 34 33 31 30 30 30 29 27 27 26 26 26 26

GEFSNGP_500_meanwind_102.txt.gz
Wind_Speed
29 30 29 27 27 28 28 28 29 27 28 28 32 33 33 34 35 36 37 38 39 41 42 43 43 44 45 46 46 47 48 50 51 52 53 54 55 57 58 60 61 63 65 67
31 30 30 30 28 28 28 28 29 30 29 29 33 35 37 37 38 38 39 40 41 42 43 43 44 45 46 47 48 50 51 52 53 54 55 56 58 59 60 62 63 65 67 69
32 32 33 32 28 29 29 29 31 32 31 33 35 36 38 39 40 40 41 41 42 43 44 45 46 47 48 49 50 51 52 53 54 55 56 58 60 61 62 63 65 67 69 71
33 34 36 30 29 29 30 30 32 33 34 35 36 37 38 39 40 41 42 43 43 44 45 46 47 48 49 50 51 52 53 54 55 57 58 59 61 62 64 66 67 69 71 73
35 35 35 32 31 30 32 32 32 34 35 37 37 39 39 40 41 42 43 44 45 45 46 47 48 49 50 51 52 53 54 55 57 58 59 61 62 64 66 68 69 71 73 75
36 36 36 33 32 32 33 33 31 34 36 38 39 39 39 41 42 43 43 44 45 46 47 48 49 50 51 52 53 54 55 56 58 59 61 62 64 66 68 70 71 73 75 76
35 36 36 33 33 33 35 34 34 35 37 38 39 39 40 41 42 43 44 45 46 47 48 48 49 50 51 52 54 55 56 57 59 61 63 64 66 68 70 72 73 75 76 76
36 37 35 33 34 35 36 37 38 38 39 39 40 40 41 42 43 44 45 46 47 48 48 49 50 51 52 53 55 56 57 59 60 62 64 66 68 70 72 74 75 76 75 74
37 37 36 36 36 37 38 39 40 40 41 41 41 42 42 43 44 45 46 47 48 48 49 50 51 52 53 54 56 57 59 61 63 64 66 68 70 72 74 75 76 75 75 73
36 36 36 37 38 39 39 40 41 42 42 42 43 43 43 44 45 46 47 47 48 49 49 50 51 53 54 56 58 59 61 63 64 66 68 70 72 74 75 75 75 74 73 72
36 36 37 37 38 39 40 41 41 42 43 43 44 44 44 45 46 46 47 48 49 49 50 51 52 54 56 58 60 61 63 64 66 68 70 72 73 74 74 74 74 73 72 70
36 36 38 38 39 40 41 42 43 43 44 44 44 45 45 46 47 47 48 48 49 50 51 53 54 56 58 60 62 63 65 67 69 71 72 73 74 74 73 73 72 70 69 67
37 38 39 39 39 40 41 42 43 44 45 45 45 45 46 47 47 48 49 50 51 52 53 55 56 58 60 62 64 66 67 69 71 72 74 75 75 75 73 70 69 67 65 63
38 39 39 39 40 41 42 43 43 43 44 44 45 45 46 47 48 49 50 51 52 53 55 56 58 60 62 64 66 68 70 71 73 74 75 76 75 74 73 71 67 63 61 59
38 40 40 40 41 42 42 42 42 42 43 44 45 46 46 47 48 49 51 52 53 55 56 58 61 63 65 67 69 70 72 73 75 76 76 75 74 73 71 68 65 61 58 55
39 39 40 41 41 42 42 42 43 44 45 45 46 46 47 48 49 51 52 54 55 57 59 61 63 66 68 69 71 72 74 75 76 76 75 74 73 71 68 65 62 59 55 52
38 38 39 40 40 41 41 42 43 43 44 44 45 46 48 49 50 52 54 56 57 59 62 64 66 68 69 71 73 75 76 76 76 75 74 73 71 68 65 62 59 55 52 49
37 38 38 39 39 40 40 41 42 42 43 45 46 47 49 50 52 54 56 57 60 62 64 67 68 70 71 73 76 77 77 76 75 74 72 70 67 64 62 58 55 52 49 45
36 36 37 37 38 39 40 41 41 43 44 45 47 48 50 52 54 56 58 61 63 64 66 68 70 72 74 75 77 77 76 74 73 71 69 67 64 61 58 55 52 49 46 43
36 37 37 38 38 39 40 41 43 44 46 47 49 51 52 55 57 59 61 63 65 68 69 71 73 74 76 76 76 75 74 72 71 69 66 63 59 56 53 51 48 45 43 41
37 37 38 39 40 41 42 43 45 46 48 50 51 53 55 57 60 62 63 65 67 70 72 73 75 76 77 76 75 73 71 70 68 65 62 58 55 52 49 47 44 42 40 38
38 39 40 41 42 42 44 45 47 48 50 52 54 56 58 60 62 64 66 69 70 72 74 75 76 77 76 75 72 70 68 66 63 60 57 54 51 49 46 44 41 39 37 36
39 40 41 42 43 44 45 47 49 50 52 54 56 59 61 63 65 67 69 70 73 74 76 76 76 75 73 71 69 66 64 62 59 56 53 50 48 46 44 41 38 36 35 34
39 40 41 43 44 45 47 49 50 52 55 57 59 62 64 66 67 70 72 73 75 75 75 74 72 71 69 67 65 63 60 57 55 52 49 47 45 43 40 38 35 34 33 31
40 41 42 44 45 47 49 51 53 55 57 59 62 64 67 69 71 72 73 73 73 73 72 70 69 67 65 63 61 58 55 53 50 48 45 43 41 38 36 34 33 31 30 29
41 42 44 46 48 49 51 53 56 58 60 62 64 67 69 71 72 72 71 70 70 69 68 67 65 63 60 58 55 52 50 48 45 42 41 39 36 34 32 31 30 29 28 27
42 44 46 48 50 53 55 57 59 61 63 66 67 69 70 70 69 69 68 67 67 65 64 62 59 56 54 51 49 47 44 42 39 37 36 34 32 30 29 28 27 27 26 26

GEFSNGP_500_meanwind_108.txt.gz
Wind_Speed
29 30 30 30 29 30 32 31 31 28 28 25 28 30 30 30 30 30 30 31 32 33 35 36 38 39 40 42 43 44 45 46 47 48 49 50 51 52 53 54 54 56 57 58
30 31 32 32 31 31 31 31 32 31 28 25 29 31 32 32 31 31 32 33 34 36 37 38 40 41 42 43 44 45 46 47 48 49 50 51 52 53 54 55 56 57 58 59
32 32 34 34 30 31 31 31 32 32 28 28 31 32 33 33 33 33 34 35 36 38 39 40 41 42 43 44 45 46 47 48 49 51 52 53 54 55 55 56 57 58 59 60
32 33 37 31 29 30 31 30 31 31 30 31 32 33 34 34 35 36 36 37 38 39 40 41 42 43 44 45 46 47 48 50 51 52 53 54 54 55 56 57 59 60 61 62
34 35 34 32 30 30 32 31 30 31 32 33 33 34 34 34 35 36 37 38 39 40 41 42 43 44 45 46 47 49 50 51 52 53 54 54 55 56 58 59 60 61 62 64
36 36 35 30 30 31 33 31 28 31 32 32 33 33 33 35 36 37 38 39 40 41 41 42 43 45 46 47 49 50 51 51 53 54 55 56 57 58 59 61 62 63 64 66
36 36 35 31 30 31 32 29 29 31 31 32 33 34 35 36 37 38 39 40 41 41 42 43 45 46 47 48 49 50 51 52 54 55 56 57 58 59 61 62 64 65 67 68
35 37 33 30 32 32 32 32 33 33 33 33 34 35 35 36 38 39 40 40 41 42 43 44 45 46 47 49 50 51 52 53 54 55 57 58 60 61 63 65 66 68 69 70
35 34 32 32 33 33 33 34 34 34 35 35 35 36 37 37 38 39 40 41 42 43 44 45 46 47 48 49 50 51 53 54 55 57 58 60 62 63 65 67 69 71 72 73
34 33 33 33 33 34 35 35 36 36 36 36 37 37 38 38 39 40 41 42 42 43 44 45 46 48 49 50 52 53 54 55 57 59 60 62 64 66 68 70 72 74 75 76
34 33 33 34 35 35 36 36 36 37 37 38 38 39 39 40 41 41 42 42 43 44 45 46 47 49 50 52 53 54 56 58 59 61 63 64 66 68 71 73 76 77 77 77
34 33 34 34 35 36 36 36 37 37 38 38 39 40 41 41 42 42 42 43 44 45 46 47 49 50 52 53 55 57 58 60 61 63 65 67 69 71 73 75 77 78 78 79
33 33 34 34 34 35 36 36 37 37 38 39 40 41 42 42 43 43 44 45 46 47 48 49 50 52 54 56 57 59 60 62 64 66 68 70 73 75 76 76 76 77 78 78
33 33 34 34 34 35 36 37 38 39 39 40 41 42 42 43 44 44 45 46 47 48 49 50 52 54 56 57 59 61 63 65 67 69 71 74 76 78 79 79 77 76 76 76
34 34 35 35 35 36 37 37 38 39 39 40 40 41 42 43 44 45 46 47 48 49 50 52 53 55 57 59 61 64 66 68 71 73 75 77 79 80 80 80 79 77 75 73
35 35 35 35 36 36 37 37 38 39 39 40 41 42 42 44 45 46 46 47 48 50 51 53 56 58 60 62 65 67 69 72 74 76 77 79 80 81 80 79 78 77 74 71
35 34 35 35 36 36 36 37 38 39 40 40 41 42 43 44 44 45 47 49 50 52 54 56 59 61 63 66 68 70 72 74 76 78 80 81 81 81 80 78 76 74 70 66
34 35 35 35 36 36 37 37 38 39 40 41 42 42 43 44 45 47 49 50 52 54 57 60 62 64 67 69 71 73 76 77 79 80 81 82 81 79 78 76 73 70 65 61
34 35 35 36 36 36 37 38 38 39 40 40 41 42 44 46 48 49 51 53 55 57 60 62 65 67 69 72 75 77 78 80 81 81 82 80 78 76 75 72 69 65 61 57
35 35 36 36 36 37 38 38 39 40 41 42 43 45 47 49 50 52 54 56 58 61 63 65 68 70 73 76 78 79 80 81 81 81 79 76 74 72 69 66 63 59 56 52
34 35 36 37 37 38 38 39 40 41 43 44 46 47 49 51 52 54 56 58 60 64 66 69 71 74 76 77 78 79 80 80 79 77 75 72 69 66 63 60 57 53 50 47
35 36 37 37 38 38 39 40 41 43 44 46 48 49 51 52 54 56 59 61 64 67 69 71 74 76 77 78 78 79 78 77 75 72 70 67 64 61 58 54 51 47 45 42
36 37 37 38 38 40 41 42 43 45 46 48 49 51 52 55 57 59 62 64 67 70 72 74 75 76 77 78 77 76 74 72 69 66 63 61 58 55 51 47 44 42 40 38
37 38 38 39 40 41 42 43 44 46 47 49 51 53 55 58 60 63 66 68 71 72 73 75 76 76 76 75 73 71 69 66 62 60 58 54 51 48 45 43 40 39 37 35
38 38 39 40 41 41 42 44 45 47 48 50 53 56 59 62 64 67 69 71 72 73 74 74 74 73 72 71 69 66 62 60 58 55 52 49 46 44 42 40 38 36 35 33
38 38 39 40 41 42 43 45 46 48 50 53 56 59 62 65 67 69 70 71 72 72 72 71 70 69 67 65 62 59 57 55 53 51 48 46 44 42 40 38 36 35 34 32
37 38 39 40 41 43 44 46 48 51 53 56 59 62 65 67 68 69 70 70 70 69 68 67 65 64 62 59 57 55 53 50 48 46 44 43 40 38 36 34 33 32 31 30

GEFSNGP_500_meanwind_114.txt.gz
Wind_Speed
32 32 32 32 33 33 34 34 34 30 29 26 27 30 31 32 32 31 31 31 32 33 34 34 35 36 38 39 40 41 42 43 44 45 45 46 48 49 50 51 52 52 53 54
33 32 33 33 33 33 32 32 31 31 29 27 29 30 31 31 32 32 32 33 33 34 34 35 36 37 38 40 41 42 43 44 45 46 47 48 49 50 51 52 53 53 54 55
34 33 35 35 31 31 31 30 31 31 28 29 31 31 31 32 33 33 34 35 35 35 35 35 36 38 39 41 41 42 44 45 46 47 48 49 50 51 52 53 54 55 55 57
36 35 37 31 29 30 31 30 31 31 30 30 31 32 32 33 34 34 34 35 35 35 36 37 38 39 40 41 42 43 44 45 47 48 49 50 51 52 53 54 55 56 57 58
37 37 35 32 29 29 30 30 30 31 31 32 33 33 33 33 34 34 34 35 35 36 37 37 38 39 40 41 42 44 45 46 47 48 49 51 52 53 55 56 57 58 59 60
37 37 35 29 28 29 31 30 28 31 32 33 34 34 32 33 34 35 35 35 36 37 37 38 39 40 41 42 43 45 46 47 48 49 51 52 54 55 56 57 58 60 61 62
35 35 33 29 28 29 31 29 29 31 32 32 33 33 34 34 35 35 35 36 37 38 38 39 40 41 42 43 44 46 47 48 49 51 52 54 55 56 58 59 60 62 63 64
35 36 31 29 30 30 30 31 31 31 31 32 33 34 35 35 35 36 36 37 38 39 39 40 40 42 43 44 45 47 48 49 51 52 54 55 57 58 60 61 62 63 65 66
35 34 32 32 31 31 31 32 32 32 32 32 33 34 34 35 36 36 37 38 38 38 39 40 42 43 44 45 46 48 49 51 52 54 55 57 58 60 61 63 65 66 68 69
36 34 33 33 32 32 32 33 33 33 33 33 33 34 35 35 36 36 37 38 38 39 40 42 43 44 45 47 48 49 50 52 54 55 56 58 60 61 63 65 67 69 71 72
37 35 35 34 34 34 34 34 34 33 34 34 34 35 35 35 36 36 37 38 39 40 42 43 44 45 46 48 49 50 52 53 55 56 58 59 61 63 65 67 70 72 74 76
37 36 36 35 35 35 35 35 35 35 35 35 35 35 36 36 37 38 38 39 40 42 43 44 45 46 48 49 50 51 53 54 56 58 59 61 63 65 67 70 72 75 77 78
38 37 37 36 35 35 36 36 36 36 36 36 36 36 37 37 37 38 39 40 42 43 44 45 46 48 49 51 52 53 55 56 58 60 62 64 67 69 70 72 74 76 77 78
37 37 37 36 36 36 36 36 36 37 37 37 37 37 37 37 38 39 40 42 43 44 45 47 48 50 51 52 53 55 57 59 61 63 65 67 70 72 74 75 75 75 77 79
36 36 36 36 36 36 36 36 36 37 37 37 37 38 38 39 40 41 42 43 44 46 47 48 49 51 52 53 55 57 59 62 64 66 68 70 72 74 76 77 78 78 79 80
36 36 36 36 36 37 37 37 37 37 38 38 39 39 39 40 41 42 43 45 46 47 48 49 50 52 54 56 58 60 63 65 67 69 71 73 75 76 77 78 80 81 81 80
37 37 37 37 37 37 37 37 38 38 38 38 39 39 40 41 43 44 45 46 47 48 49 51 53 55 57 59 61 63 66 68 70 72 74 75 77 78 79 81 82 81 79 76
37 37 36 36 36 36 37 37 37 37 38 38 39 41 42 43 44 45 46 47 48 50 52 54 56 58 60 62 65 67 69 71 72 74 75 77 78 79 80 81 80 77 74 71
36 36 36 36 36 36 36 37 37 38 39 40 41 42 43 44 45 46 47 49 50 52 54 56 58 61 63 65 68 69 71 73 74 75 77 78 79 79 79 78 76 73 70 67
35 36 36 36 36 36 37 38 38 39 40 41 42 43 44 45 47 48 49 51 53 55 57 59 61 63 66 68 70 71 73 74 75 77 78 78 78 77 76 73 70 68 65 63
36 36 36 36 36 37 37 38 39 40 41 42 44 45 46 47 48 50 51 53 55 57 59 62 64 66 68 70 71 73 74 76 77 78 77 76 75 73 71 68 66 64 62 59
35 35 35 35 36 37 37 38 39 41 42 43 44 46 47 48 50 52 54 56 58 60 62 64 66 68 70 71 73 74 75 76 76 76 74 72 71 68 66 64 63 61 58 55
35 35 36 37 37 38 39 40 41 42 43 44 46 47 49 50 52 54 56 58 60 62 63 65 68 70 71 72 73 74 75 74 72 71 70 69 67 65 63 61 59 56 52 49
34 35 36 37 38 39 40 41 42 43 44 46 47 49 50 52 54 56 58 60 61 63 65 68 70 71 72 73 73 73 72 70 69 69 68 65 63 61 59 57 54 50 46 44
34 35 37 38 38 39 40 41 42 43 45 46 48 49 51 53 55 57 59 61 63 65 67 69 70 71 72 72 71 70 69 68 67 65 63 60 58 56 54 51 48 45 43 41
33 35 36 37 38 39 40 41 43 44 45 46 48 50 52 54 56 58 60 63 65 66 67 68 69 70 70 69 68 68 67 65 62 60 58 56 54 51 49 47 44 42 40 38
34 34 35 37 38 39 41 42 43 44 46 47 49 51 53 55 58 60 62 64 65 66 67 68 68 68 67 67 66 64 61 58 56 55 53 52 50 48 46 43 41 39 38 36

GEFSNGP_500_meanwind_120.txt.gz
Wind_Speed
41 40 39 37 36 36 37 36 36 33 32 29 30 32 32 31 30 29 29 28 28 28 29 30 31 31 32 33 34 34 35 35 37 38 40 41 42 42 43 44 45 46 47 48
41 41 39 39 37 36 36 35 34 34 31 29 31 32 32 31 30 29 29 29 30 30 31 31 32 32 32 33 34 34 35 36 38 39 41 42 43 43 44 45 46 47 49 50
41 40 40 40 36 35 34 33 33 33 29 31 32 31 31 31 31 30 30 30 31 31 32 32 32 32 33 34 35 36 37 38 39 40 41 42 43 43 44 46 48 49 50 52
41 40 41 36 34 33 33 32 32 31 30 31 31 31 31 31 30 30 30 30 31 31 31 31 32 33 34 35 36 37 38 39 40 41 42 42 43 44 46 48 49 51 52 54
42 42 40 36 32 31 32 31 31 31 31 31 32 32 31 31 31 30 30 30 30 30 31 32 33 34 35 35 36 37 38 39 40 41 42 43 44 46 48 50 51 53 54 55
43 42 39 34 32 31 32 31 30 31 31 31 32 32 30 30 31 30 30 30 30 31 32 33 33 34 35 36 36 37 38 39 40 41 42 44 46 48 49 51 52 53 55 56
42 40 38 34 32 31 32 29 29 30 30 30 31 30 30 30 30 30 30 30 31 31 32 33 33 34 35 35 36 37 38 39 40 42 43 45 47 49 50 52 53 55 56 57
41 40 36 33 32 32 31 30 29 29 29 29 30 30 30 30 30 30 29 29 30 30 31 32 33 34 35 35 36 37 39 40 41 43 45 47 48 50 51 53 54 56 57 59
39 37 34 33 32 31 31 31 30 29 29 29 29 30 30 30 30 30 30 30 30 31 32 32 33 34 35 36 37 38 40 41 43 44 46 48 50 51 53 54 56 57 59 61
40 38 36 34 32 32 32 31 30 30 30 30 30 30 30 30 30 30 31 31 31 32 32 33 34 34 36 37 39 40 41 43 44 46 47 49 51 52 54 56 58 60 61 63
39 37 36 35 33 32 31 31 31 31 30 30 30 30 31 31 31 31 31 32 32 33 33 34 35 36 37 39 40 41 43 45 46 48 49 51 52 54 56 57 60 62 64 65
38 36 36 35 34 33 32 32 33 32 31 30 30 30 31 31 31 32 32 33 33 34 35 36 37 38 39 40 42 44 45 47 48 50 51 52 54 56 58 60 62 64 66 67
38 38 37 36 35 35 34 34 34 34 33 32 31 32 32 32 32 33 33 34 35 36 37 38 39 40 41 42 44 45 46 48 49 51 53 54 56 58 60 62 63 65 67 69
38 38 37 36 36 35 35 35 35 35 34 33 33 33 33 34 34 34 35 36 37 38 39 39 40 41 42 44 45 46 48 50 51 53 55 57 59 61 63 64 66 67 69 70
38 38 37 36 36 36 35 35 35 35 35 34 34 34 34 35 35 36 36 37 38 39 40 40 41 43 44 45 47 48 50 52 54 56 58 60 62 64 66 67 68 69 70 71
39 38 37 37 36 36 36 35 35 35 35 35 35 35 35 35 36 37 38 38 39 40 40 42 43 44 46 47 49 50 52 54 57 59 60 62 64 66 68 69 70 71 72 72
38 37 36 36 36 36 35 35 35 35 35 36 36 36 36 36 37 37 38 39 40 41 41 43 45 46 48 50 51 53 55 57 59 61 63 65 66 68 70 71 72 73 73 74
36 36 36 36 36 36 36 36 35 35 35 36 36 36 36 37 37 38 39 40 41 42 43 45 47 48 50 52 54 56 58 60 61 63 65 67 69 70 71 73 74 74 74 72
36 35 35 35 35 35 35 35 35 35 36 36 36 37 37 37 38 39 40 41 42 44 45 47 49 51 53 55 57 59 60 62 63 65 67 69 70 72 73 74 74 72 70 68
34 34 35 35 35 35 35 35 35 35 35 36 36 36 37 37 38 40 41 43 45 46 47 49 51 53 55 57 59 60 62 64 66 68 69 70 72 73 73 72 70 68 66 65
34 33 34 34 34 34 34 34 34 34 35 35 36 36 37 38 40 42 43 45 46 47 49 51 53 55 57 59 61 63 65 67 69 69 70 71 72 71 70 67 65 64 63 61
31 32 32 32 33 33 33 34 34 34 35 35 36 37 38 40 42 43 45 46 47 49 51 53 55 58 60 61 63 65 67 68 69 70 71 72 71 69 66 63 62 61 60 58
29 30 31 32 32 32 32 33 33 34 35 36 37 39 40 41 43 44 45 47 49 51 53 55 58 60 62 63 65 67 68 69 70 71 71 69 67 64 62 61 60 59 57 55
29 29 30 31 31 32 32 33 33 34 35 37 39 40 41 43 44 46 47 49 51 53 55 58 60 61 63 65 67 68 69 69 69 69 67 65 63 61 60 59 57 55 53 51
27 29 29 30 30 31 32 33 34 35 37 38 40 41 43 44 45 47 49 51 53 55 57 59 60 62 65 67 68 68 68 67 66 65 63 61 60 59 57 56 54 52 50 48
27 28 29 30 31 32 33 34 35 37 38 40 41 42 44 45 47 49 51 53 55 57 58 60 62 64 66 67 67 66 65 63 61 60 59 59 57 56 54 52 51 49 47 45
27 28 29 30 31 32 33 35 36 38 39 40 42 43 45 47 49 51 52 54 55 57 60 62 63 65 65 65 64 62 61 59 58 58 57 56 54 52 51 50 48 47 45 44

GEFSNGP_500_meanwind_126.txt.gz
Wind_Speed
48 47 45 43 42 43 44 42 41 37 37 36 36 36 34 33 33 32 31 31 31 31 31 31 31 31 32 32 33 33 33 34 34 35 35 36 36 37 38 39 40 41 42 43
48 47 46 45 45 44 43 41 39 38 37 35 36 36 35 34 33 32 31 31 31 31 31 31 31 31 32 32 33 33 34 34 34 35 36 36 37 38 39 40 41 42 44 45
49 47 47 49 45 42 41 39 39 38 34 34 35 35 35 35 34 32 31 31 31 30 31 31 31 31 31 32 33 33 33 34 35 35 36 37 38 39 40 41 42 44 45 47
47 48 51 47 43 41 40 38 38 37 35 35 35 35 35 34 33 32 31 31 30 30 30 30 30 31 31 32 33 33 34 34 35 36 37 38 39 40 41 42 43 45 46 47
49 49 49 45 41 39 39 38 36 36 35 35 35 35 34 32 32 31 31 30 30 29 29 30 30 31 32 32 33 33 34 35 36 37 38 38 39 40 41 43 45 46 47 48
50 49 48 42 39 38 39 38 34 34 34 33 34 34 31 31 32 31 31 30 30 30 30 30 30 31 32 32 33 33 34 35 36 37 38 39 40 41 43 44 45 47 48 50
49 49 45 41 39 39 39 33 31 32 32 33 33 32 31 31 31 31 30 30 30 30 30 30 31 31 32 32 32 33 34 35 36 37 38 39 41 42 44 45 47 48 50 52
48 48 44 39 38 38 36 34 33 32 32 32 32 32 32 31 30 30 30 30 30 31 31 31 31 32 32 32 33 34 35 36 37 38 39 41 42 44 45 47 48 50 52 53
44 42 39 37 36 36 35 34 33 32 32 32 32 32 31 31 30 30 30 30 31 31 31 31 32 32 33 33 34 35 36 37 38 39 41 42 43 45 47 48 50 52 54 55
42 41 39 37 37 36 34 33 33 32 32 31 31 31 31 31 31 31 31 31 31 31 32 32 33 33 34 35 36 37 37 38 39 41 42 43 45 47 48 50 52 53 55 56
42 40 40 39 36 36 35 34 33 32 32 31 31 30 30 31 31 31 31 31 32 32 32 33 34 34 35 36 37 38 38 40 41 42 44 45 47 48 50 52 53 55 56 58
40 38 38 37 36 36 35 34 33 32 31 31 31 31 31 31 31 31 32 32 32 33 33 34 35 36 37 38 38 39 40 41 43 44 45 47 48 49 51 53 55 56 58 59
39 39 38 38 38 37 36 35 34 33 32 31 31 31 31 32 32 32 32 33 33 34 35 35 36 37 38 39 40 41 42 43 44 45 47 48 49 51 52 54 56 58 59 61
40 40 38 37 37 37 36 36 35 34 33 32 32 32 32 32 32 33 33 34 35 35 36 37 37 38 39 40 41 42 43 44 45 46 48 49 51 52 54 56 57 58 60 62
39 39 37 37 37 37 36 35 35 34 34 33 33 33 33 33 33 34 34 35 36 36 37 38 39 40 41 42 42 43 44 45 47 48 50 51 53 54 56 57 59 60 62 63
38 38 38 37 37 36 35 35 34 34 34 34 35 35 35 35 35 35 36 37 37 38 38 39 40 41 42 42 43 44 45 47 48 50 51 53 54 56 57 59 61 63 64 65
37 36 36 36 36 36 35 34 34 34 34 35 35 36 36 36 36 37 37 38 38 39 39 40 41 42 43 43 44 45 46 48 50 51 53 54 56 58 59 62 63 64 65 66
37 36 35 36 36 36 35 35 34 34 34 34 35 35 35 36 36 37 38 38 39 39 40 41 42 42 43 44 45 47 48 50 51 53 55 56 58 60 62 64 65 65 66 67
37 36 35 35 35 35 35 35 35 35 35 34 34 35 35 36 36 37 38 38 39 40 41 42 43 44 45 46 47 48 50 51 53 55 57 59 61 63 64 65 65 66 67 67
36 36 35 35 34 34 35 34 34 34 34 34 35 35 36 36 37 37 38 39 40 41 42 43 44 45 46 47 49 50 52 54 56 57 60 62 63 64 65 66 66 67 66 65
34 34 35 35 34 34 34 33 33 33 34 34 35 35 36 36 37 37 38 39 41 42 43 44 45 46 47 49 51 52 54 56 58 60 62 63 64 65 66 67 67 65 63 62
32 34 34 34 34 34 33 33 33 33 34 34 34 35 35 36 37 38 39 40 41 42 44 45 46 48 49 51 53 54 56 58 61 63 64 65 65 66 66 66 64 62 60 59
32 32 32 33 33 33 33 33 33 33 34 34 34 35 35 36 37 39 40 41 42 44 45 46 48 49 51 52 55 57 59 61 63 64 65 66 66 65 65 63 61 59 57 57
30 30 30 31 31 32 32 32 33 33 34 34 34 35 35 36 38 39 41 42 44 45 46 48 49 51 53 55 57 59 61 63 65 65 65 65 64 63 62 60 58 56 56 55
28 28 28 28 28 29 30 31 32 32 33 34 34 35 36 37 39 40 42 43 44 45 47 49 51 53 55 57 59 61 63 64 64 64 63 63 62 60 59 57 55 55 54 53
26 26 27 27 28 28 29 30 31 31 32 33 34 36 37 38 40 41 42 44 45 47 49 51 53 54 56 59 61 62 62 62 62 62 61 60 59 57 56 55 54 53 52 52
26 26 26 27 27 28 28 29 30 31 33 34 35 37 39 40 41 43 44 46 48 49 51 52 54 56 58 60 61 61 62 62 61 60 59 58 57 56 55 53 52 52 51 50

GEFSNGP_500_meanwind_132.txt.gz
Wind_Speed
52 52 50 49 47 47 47 45 44 40 39 35 34 33 32 32 32 31 30 29 28 28 28 28 28 28 29 29 29 30 30 30 31 31 32 33 33 34 34 35 36 37 38 38
52 51 52 52 50 48 47 44 42 41 39 35 35 35 34 33 32 31 30 29 29 29 28 28 28 28 29 29 30 30 30 30 31 32 33 33 34 34 35 36 36 37 38 39
50 50 52 54 51 49 47 43 41 41 36 35 36 36 34 33 32 32 31 30 29 29 29 29 28 28 29 30 30 30 31 31 32 32 33 34 34 35 35 37 38 38 39 40
49 50 52 50 46 46 45 42 41 39 35 36 35 35 34 34 33 33 32 31 30 29 29 29 29 29 29 30 30 30 31 31 32 32 33 34 34 35 36 37 38 39 40 41
50 52 51 48 45 44 44 43 40 38 36 36 35 36 36 34 34 33 32 31 30 30 30 29 30 30 30 30 30 30 31 31 32 33 33 34 34 35 36 37 38 40 41 42
50 51 50 44 41 40 43 43 38 38 36 36 36 38 34 32 33 33 33 32 31 30 30 30 30 30 30 30 30 31 31 31 32 33 33 34 35 36 37 38 39 41 42 43
49 47 46 42 41 42 43 37 35 36 35 35 36 34 31 33 33 33 33 31 30 30 30 30 30 30 30 30 31 31 32 32 33 33 34 35 36 37 38 39 41 42 43 43
47 47 46 41 40 40 35 33 35 35 35 35 34 33 33 33 33 33 32 30 30 30 30 30 30 30 30 31 31 32 32 32 33 34 35 36 37 38 39 40 41 42 43 44
43 42 40 38 37 36 35 34 34 35 35 34 34 33 32 32 32 32 31 31 30 30 30 30 30 30 31 31 32 32 32 33 34 35 36 37 38 39 40 41 42 43 44 46
42 41 39 36 35 34 34 33 34 34 35 35 33 32 32 32 31 31 31 31 31 31 31 31 31 32 31 31 32 32 33 34 35 36 37 38 39 40 41 42 43 44 46 47
42 39 38 37 35 33 33 33 33 33 33 33 33 32 32 31 31 31 31 31 31 31 31 32 32 32 32 32 33 34 35 35 36 37 38 38 40 41 42 43 44 45 47 48
41 37 36 35 35 35 35 33 32 32 32 31 31 31 31 31 31 31 31 31 30 31 32 32 32 32 33 33 34 35 36 36 37 38 39 40 41 42 43 44 45 46 48 49
41 39 39 39 39 38 37 35 33 32 32 31 30 30 30 30 30 31 31 31 31 32 32 32 32 33 33 34 35 36 37 37 38 39 40 41 42 43 44 45 47 48 50 51
41 41 41 40 39 39 38 36 35 33 32 30 30 30 30 30 30 31 31 31 31 32 32 32 33 34 34 35 35 36 37 38 39 40 41 42 43 44 46 47 48 49 51 53
39 39 40 39 39 39 38 37 35 33 32 31 30 29 29 30 30 31 31 32 32 32 33 34 34 34 35 36 36 38 39 39 40 41 42 44 45 46 47 48 50 51 53 55
37 37 38 38 37 37 36 35 33 32 31 30 30 30 30 30 31 31 32 32 32 33 34 34 35 35 36 36 37 38 39 40 41 42 44 45 46 47 49 50 52 53 55 56
35 35 36 37 37 36 35 34 33 32 31 31 31 30 30 30 30 31 32 32 33 33 34 35 35 36 36 37 38 39 40 41 42 43 45 46 47 49 50 52 53 55 56 57
35 34 35 36 36 35 35 35 34 33 33 33 32 32 31 31 31 32 32 32 33 33 34 35 36 37 37 38 39 40 41 42 43 44 46 47 49 50 52 53 55 56 57 59
34 34 34 35 36 36 35 34 34 34 34 34 33 33 32 32 32 32 32 32 33 33 34 35 36 37 38 39 40 40 41 42 44 46 47 48 50 51 53 55 56 57 58 59
32 32 33 35 36 35 35 34 34 34 34 34 33 33 33 33 33 33 33 33 33 34 34 35 36 37 37 38 39 41 42 44 45 47 48 49 51 53 54 55 56 57 58 58
30 30 31 33 34 34 33 33 32 32 32 33 32 32 32 33 33 32 32 33 33 34 35 36 37 37 38 39 40 42 44 45 47 48 49 51 53 54 55 56 57 57 57 56
29 29 30 31 32 32 32 32 31 31 31 31 31 31 32 32 32 32 32 33 34 35 36 36 37 38 39 40 42 43 45 46 48 49 51 53 54 54 55 56 56 56 56 55
27 28 29 30 31 31 32 32 32 32 32 31 31 31 31 31 32 32 32 33 34 35 36 37 38 39 40 41 43 44 46 47 49 51 52 53 53 54 55 55 55 55 55 55
26 27 27 28 29 30 31 32 32 32 32 31 32 32 32 32 32 32 33 34 35 35 36 37 38 40 41 43 44 46 48 49 51 52 53 53 54 55 54 54 54 55 55 54
26 26 26 26 27 28 29 30 30 31 32 32 32 32 32 32 32 33 33 34 35 36 37 38 39 41 43 44 46 48 49 51 52 53 53 54 54 54 54 54 55 55 54 53
25 25 25 26 27 27 28 28 29 30 31 32 32 32 32 33 33 33 34 35 36 37 38 39 40 42 44 45 47 49 51 52 53 53 53 54 54 54 54 54 54 54 53 52
24 24 25 25 25 26 27 27 28 28 29 29 30 31 32 32 33 34 34 35 36 38 39 41 42 43 45 47 49 50 52 53 53 53 54 55 55 54 54 53 53 52 51 51

GEFSNGP_500_meanwind_138.txt.gz
Wind_Speed
55 55 55 55 56 56 56 54 52 46 45 42 41 39 38 38 37 37 36 36 37 36 36 36 35 35 35 35 34 34 34 33 33 33 33 33 33 34 34 35 36 36 37 38
54 54 55 55 55 55 55 53 52 49 46 41 41 41 40 39 38 37 37 37 37 37 36 35 35 35 35 35 34 34 33 33 33 33 33 33 34 34 34 35 36 37 37 38
56 55 54 55 53 54 55 54 53 52 45 43 43 42 41 40 40 39 38 38 37 36 36 36 35 35 35 35 34 34 33 33 33 33 33 33 34 34 35 36 36 37 37 38
52 54 56 52 50 52 53 53 51 50 46 44 43 43 43 42 41 41 40 39 38 37 37 36 36 36 35 35 34 34 34 33 33 33 33 34 34 35 35 36 37 37 38 39
50 53 53 51 49 49 51 51 49 48 46 45 45 46 45 43 42 42 42 41 39 38 38 37 36 36 36 35 35 34 34 34 33 34 34 34 35 35 36 37 38 38 38 39
50 52 51 47 46 46 47 49 46 46 45 45 46 48 43 41 43 43 42 40 39 38 38 37 36 36 35 35 35 34 34 34 34 35 35 35 35 36 37 37 38 38 38 39
48 51 48 44 44 46 46 44 44 45 45 45 46 44 39 41 42 42 41 40 39 39 38 37 37 36 35 35 35 35 35 35 35 35 35 36 36 37 37 38 38 38 39 40
47 49 47 43 42 42 41 42 42 43 44 44 43 42 41 41 41 42 41 40 40 39 39 38 37 36 35 35 35 35 35 35 35 35 36 36 37 37 37 38 38 39 40 41
46 46 44 43 42 40 39 41 41 42 42 43 42 42 41 41 40 40 40 39 39 39 38 38 37 36 36 35 35 35 35 35 35 35 36 36 37 37 37 38 38 40 41 42
43 44 43 40 39 41 41 40 40 41 41 41 40 39 39 39 39 38 38 38 38 38 37 37 37 37 36 36 36 36 35 35 35 36 36 36 37 37 37 38 39 40 41 43
44 44 43 41 39 38 38 39 41 41 42 41 40 38 38 38 37 37 36 37 37 37 36 36 36 36 35 35 35 35 35 35 36 35 36 36 36 37 38 39 40 41 42 43
44 44 44 42 41 41 39 37 38 39 39 40 40 38 37 36 37 36 35 35 35 35 35 35 35 35 34 34 35 35 35 35 35 35 36 36 37 38 39 40 40 41 42 43
42 43 44 43 43 43 40 37 36 37 38 38 38 38 36 35 35 35 35 34 33 34 34 35 34 34 34 34 34 35 35 35 35 36 36 37 38 39 40 40 41 42 43 43
40 42 44 44 43 44 41 38 36 36 36 36 36 36 35 35 34 34 33 34 34 34 35 35 34 34 34 35 34 35 35 35 36 36 37 38 39 39 40 40 41 42 42 43
37 39 41 42 42 42 41 38 36 36 36 36 36 35 34 34 34 34 33 33 33 34 34 35 35 34 34 34 34 35 35 35 36 37 37 38 38 39 40 41 41 42 43 44
35 36 38 39 40 40 40 39 37 37 37 36 36 35 34 34 34 34 33 33 33 33 33 33 33 34 34 34 34 35 35 36 36 37 38 38 38 39 40 41 42 43 44 45
33 34 35 37 38 39 39 39 37 36 36 36 35 35 35 34 34 33 33 32 32 32 32 33 33 33 34 34 35 35 36 36 37 37 37 38 39 41 42 42 43 44 45 46
31 34 35 36 37 38 39 38 37 36 35 35 35 35 35 33 32 32 32 32 32 32 32 32 33 33 34 34 35 35 35 36 37 37 38 40 41 42 42 43 44 45 46 47
33 34 35 34 35 35 37 37 36 35 35 35 35 35 34 33 32 31 32 32 32 32 32 32 33 33 34 34 34 35 36 37 37 38 39 41 41 42 43 44 45 46 47 48
31 33 34 33 33 34 34 35 36 35 34 34 34 34 34 33 32 32 32 32 32 32 32 32 33 33 34 34 35 36 36 37 38 38 40 41 41 42 43 44 45 46 48 50
29 30 31 32 33 33 34 34 35 34 33 33 34 34 33 33 33 32 32 32 32 32 32 33 33 33 34 34 35 35 36 37 37 38 39 40 41 42 43 44 46 47 48 50
27 28 29 30 31 33 33 33 34 33 33 33 34 34 34 34 33 33 33 33 33 33 32 32 33 33 34 34 35 36 36 37 38 38 39 40 41 43 44 45 46 48 49 50
28 28 28 29 29 30 31 32 32 33 34 34 34 33 33 33 33 33 33 33 33 33 33 33 33 34 35 35 36 36 36 37 38 39 40 41 42 44 45 46 48 48 50 51
26 27 26 27 28 29 30 31 32 32 33 34 33 32 31 31 31 32 33 33 33 33 33 33 34 34 35 36 36 37 37 38 39 40 41 42 43 44 46 47 48 49 50 51
25 26 27 26 26 27 28 29 29 31 31 32 31 31 31 31 31 31 32 33 33 33 33 34 34 35 36 36 37 37 38 39 40 41 42 43 44 45 47 48 49 50 51 51
23 24 25 25 25 25 26 27 27 27 28 29 30 30 30 30 30 30 31 32 32 32 33 34 35 36 36 37 37 38 38 39 41 42 42 43 45 46 48 49 50 52 52 52
22 22 22 23 23 24 25 26 26 26 27 28 28 29 29 29 30 31 31 31 32 33 34 35 35 35 36 36 37 38 39 40 41 42 43 45 46 47 49 50 51 52 52 52

GEFSNGP_500_meanwind_144.txt.gz
Wind_Speed
43 43 45 48 51 54 56 55 54 53 51 46 43 42 41 40 39 40 40 41 42 42 41 41 40 40 40 40 39 38 38 37 37 36 36 36 36 36 36 36 36 36 36 36
42 43 44 45 48 51 54 53 51 51 51 46 45 43 41 41 40 40 40 41 41 41 41 40 40 39 39 38 38 38 37 37 36 36 36 36 35 35 36 36 36 36 36 36
42 41 44 46 45 46 50 52 52 51 48 48 47 45 42 41 41 40 41 41 41 41 41 40 40 39 38 37 37 37 37 36 36 36 36 36 36 35 36 36 36 36 36 37
44 44 43 43 42 42 44 47 51 51 50 49 49 47 45 44 42 42 42 42 42 42 42 41 40 39 38 37 37 37 36 36 36 36 36 36 36 36 36 36 36 36 36 37
42 44 43 42 41 41 42 44 47 50 51 50 50 50 48 46 46 44 43 43 43 42 42 41 40 39 38 38 37 37 37 36 36 36 36 36 36 36 36 36 36 36 36 36
40 42 43 41 41 42 42 43 45 48 50 50 50 51 47 46 46 46 45 44 44 43 43 41 40 40 39 38 37 37 36 36 36 36 36 36 36 36 35 35 35 36 36 37
37 39 42 40 40 42 44 42 44 46 47 48 48 48 46 46 46 45 45 45 45 44 43 41 41 40 39 38 37 37 37 36 36 36 36 36 35 35 35 35 36 36 36 37
35 38 37 36 37 40 42 42 43 46 47 47 46 46 47 47 46 45 44 44 44 43 42 42 41 40 39 39 38 38 37 37 36 36 35 35 35 35 35 35 36 36 36 37
35 36 35 35 36 37 40 42 43 45 46 47 47 46 45 46 46 45 44 43 43 43 42 42 41 40 39 39 38 38 38 37 36 36 35 35 35 35 35 36 36 36 37 37
37 37 36 36 36 38 40 42 43 44 45 46 46 46 46 45 45 45 44 43 43 43 42 41 41 40 39 39 38 38 38 37 36 36 35 35 35 35 35 36 36 36 37 38
36 37 38 38 38 38 39 41 42 43 44 45 45 45 44 44 44 44 43 42 42 41 41 41 40 39 38 38 38 38 37 37 36 36 35 35 35 35 36 36 36 37 38 38
35 36 38 39 39 39 39 40 41 41 43 44 44 43 42 42 42 42 41 41 41 40 40 40 39 39 38 38 38 37 37 36 35 35 35 35 35 35 36 36 36 37 38 39
33 36 37 38 40 40 41 41 41 40 41 42 43 42 42 41 42 42 41 40 40 40 39 39 38 38 37 38 38 37 36 36 35 35 35 35 35 35 35 36 37 38 38 39
31 34 36 37 39 41 42 43 42 40 40 40 40 40 40 40 40 40 40 40 39 38 38 37 37 36 36 36 36 36 36 36 35 35 35 35 35 35 35 36 37 38 38 39
31 34 36 37 38 40 41 42 43 41 40 40 40 39 39 39 39 39 39 39 38 37 36 36 35 35 36 36 35 35 35 35 35 35 35 35 35 35 36 37 38 38 39 39
29 32 35 35 36 37 39 40 41 41 41 40 40 39 38 37 37 38 37 37 37 36 35 35 35 35 35 35 35 34 34 34 34 34 35 35 36 36 37 37 38 38 38 39
28 30 31 31 33 34 35 37 38 39 41 41 40 39 37 35 35 35 34 35 35 35 35 35 35 34 34 34 34 34 34 34 34 35 35 36 36 36 37 37 37 38 39 39
26 28 29 30 31 32 32 35 37 39 40 41 40 39 37 35 34 33 34 34 34 35 34 34 34 34 34 34 34 34 34 34 34 35 35 35 36 36 36 37 38 38 39 40
26 27 29 29 29 30 31 33 35 36 38 40 41 40 38 36 35 34 33 33 34 34 34 33 33 34 34 34 34 33 34 34 34 35 35 35 35 36 36 37 38 39 40 40
25 26 27 28 29 31 31 31 32 34 36 39 39 39 39 36 35 34 33 33 33 34 34 33 33 33 33 33 33 33 34 34 35 35 34 35 35 36 37 37 38 39 40 40
26 27 27 28 29 30 30 30 30 31 34 37 37 38 38 37 35 34 33 33 32 32 33 33 33 32 32 32 32 33 33 34 34 34 34 35 36 36 37 37 38 38 39 40
25 26 26 26 28 29 29 29 29 30 32 33 34 35 35 35 34 33 33 32 32 32 32 31 31 31 31 31 31 32 32 33 34 34 35 35 36 36 37 37 38 39 40 40
25 24 24 24 25 26 28 28 28 29 29 29 30 32 34 34 33 32 31 31 30 31 31 30 30 30 30 31 31 32 32 33 34 34 34 35 35 36 37 37 38 39 39 39
24 25 25 25 25 26 27 27 27 27 28 28 30 31 32 33 33 31 30 29 29 29 29 30 30 30 30 30 31 32 32 32 33 33 34 35 35 36 36 37 37 37 38 38
23 24 25 26 26 26 26 25 25 26 27 27 28 29 30 31 31 31 30 30 29 30 30 29 29 29 30 30 30 31 31 31 32 33 33 34 34 34 35 35 36 37 37 38
21 23 24 25 25 25 25 25 26 26 27 27 27 27 28 29 30 30 30 30 29 29 29 29 29 29 29 29 29 30 30 31 32 32 33 34 34 35 35 36 36 37 38 39
21 22 23 24 24 24 25 25 25 25 25 26 26 26 26 26 27 28 28 27 27 27 28 28 28 28 28 29 30 30 31 32 33 34 34 35 35 35 36 36 37 38 40 41

GEFSNGP_500_meanwind_150.txt.gz
Wind_Speed
36 38 38 40 46 48 48 51 52 46 43 43 43 42 41 41 43 44 46 47 48 50 50 50 50 50 50 49 48 47 45 44 43 42 41 40 40 39 38 37 37 36 36 36
34 38 41 41 43 47 48 50 50 48 45 44 44 44 43 41 41 41 42 44 46 47 48 48 48 49 49 48 47 46 45 44 43 42 42 41 40 39 38 37 36 36 36 36
34 36 40 41 41 43 46 48 50 50 46 46 45 46 45 42 41 42 43 43 45 45 45 46 47 47 47 47 46 46 45 44 43 42 41 40 40 39 38 38 37 37 37 36
35 36 38 37 38 39 41 45 47 50 49 47 47 46 46 45 44 44 44 44 44 44 44 44 45 45 46 46 46 45 43 42 42 42 41 40 39 39 39 38 37 37 36 36
35 36 36 36 36 36 39 41 45 48 51 50 49 48 47 47 47 46 47 46 45 44 44 43 43 44 44 44 44 44 43 42 42 41 40 40 39 39 38 38 37 37 36 36
33 34 35 35 34 35 37 38 42 47 49 51 50 51 48 46 47 47 47 47 46 45 44 43 43 43 43 43 43 42 42 42 42 41 40 40 39 39 38 37 37 36 36 36
30 34 36 34 33 34 35 35 38 43 48 50 51 51 50 48 46 47 47 47 46 45 45 44 44 44 43 42 42 42 42 42 42 41 40 39 39 39 38 37 37 36 37 37
29 31 33 33 33 34 35 36 36 39 44 48 50 50 49 48 46 47 47 47 46 46 46 45 45 44 44 43 42 42 42 41 41 41 40 40 39 39 38 37 37 37 37 37
31 30 30 32 34 35 35 36 37 38 40 44 47 48 48 48 47 47 48 47 46 46 46 45 45 44 44 43 43 42 41 41 40 40 40 39 39 38 37 37 37 37 36 36
32 31 32 32 34 35 35 36 38 40 40 42 43 45 46 46 45 45 46 46 46 46 45 45 44 43 43 43 43 42 41 40 40 39 39 38 38 37 37 37 36 36 36 36
32 32 34 34 35 35 36 37 38 40 41 41 42 43 44 45 45 44 44 45 45 44 44 44 44 44 43 43 42 42 42 41 40 39 38 37 36 36 36 35 35 35 36 36
31 31 34 35 35 35 36 37 38 39 40 40 41 42 43 44 44 44 44 44 44 45 45 45 44 43 43 42 42 42 42 41 40 39 37 36 35 35 34 35 35 35 35 35
30 31 34 35 36 37 37 38 39 40 40 39 40 41 41 42 43 43 44 44 44 44 44 44 44 44 43 42 42 41 40 39 39 38 37 35 35 35 35 34 34 34 35 34
31 32 34 34 36 37 38 38 39 40 40 40 40 41 41 41 41 42 44 44 44 43 44 44 44 44 43 43 42 41 40 39 38 37 36 35 34 34 34 34 34 34 34 34
31 33 33 33 36 36 36 36 37 39 40 40 40 40 41 41 41 42 42 42 42 43 43 43 42 41 42 42 41 40 40 39 37 36 35 35 34 34 34 35 35 35 34 34
30 32 33 33 34 35 35 35 37 38 39 40 40 40 40 40 41 41 42 42 42 42 42 42 40 40 41 41 41 41 40 39 38 37 36 35 35 35 35 35 35 34 34 35
27 29 31 34 34 34 33 34 35 35 37 38 39 40 40 40 40 39 39 40 40 40 41 41 41 40 40 40 40 41 40 40 38 37 36 36 36 36 35 35 35 35 35 35
26 27 30 33 33 33 32 33 35 35 35 36 37 39 39 39 38 38 37 36 37 38 39 40 40 40 40 40 40 41 40 40 38 37 36 36 35 35 34 34 35 35 35 35
25 27 29 30 31 31 31 33 34 34 34 36 37 37 36 36 36 36 36 35 35 35 35 37 38 39 39 40 40 40 40 39 38 37 36 36 35 34 34 34 34 34 34 34
25 25 26 27 30 31 31 33 34 34 35 35 36 36 35 35 34 35 35 35 34 34 34 35 36 37 38 39 39 39 39 38 37 37 35 34 34 34 34 33 33 33 33 34
24 24 24 25 27 29 29 31 32 33 33 34 34 34 34 34 34 34 35 35 34 34 34 35 35 36 36 37 37 37 37 37 37 35 34 34 33 32 32 31 31 32 33 33
23 23 23 24 25 27 28 28 30 31 31 32 33 33 34 34 34 34 34 34 34 33 34 34 34 35 35 35 36 36 37 36 35 35 34 34 33 32 31 31 31 32 32 33
20 21 21 22 24 24 25 26 28 30 31 32 32 33 33 33 33 33 33 33 33 32 32 33 33 34 34 34 34 34 34 33 33 33 33 34 33 32 32 32 32 32 33 33
18 18 19 20 22 23 24 24 26 28 29 30 31 31 32 32 33 33 32 31 31 31 30 31 32 32 33 33 32 32 31 31 31 31 32 32 32 33 33 33 32 33 33 34
16 16 18 20 20 22 23 23 26 27 28 28 29 30 30 30 31 31 31 30 30 30 30 30 30 29 30 30 30 29 29 30 30 31 31 32 32 32 32 33 33 33 33 33
14 15 17 18 19 21 22 23 24 25 25 25 26 26 27 27 28 29 29 29 29 28 28 28 28 27 28 28 26 26 28 29 29 30 31 31 32 32 32 33 34 34 34 33
13 15 17 18 19 20 22 23 23 23 23 24 23 24 25 25 26 26 27 28 28 28 28 27 27 27 26 25 25 25 26 27 28 29 29 30 30 31 32 32 32 32 32 32

GEFSNGP_500_meanwind_156.txt.gz
Wind_Speed
27 28 31 33 34 37 39 40 41 42 44 43 41 41 42 45 47 48 48 48 49 50 51 51 51 51 52 51 50 49 48 47 45 44 44 43 42 41 41 40 39 39 39 38
28 29 32 32 33 35 37 39 40 42 44 42 43 42 41 43 46 48 47 47 48 50 51 51 51 51 51 51 50 49 48 48 47 46 45 44 43 42 42 41 41 40 39 39
28 28 33 33 32 34 35 37 39 42 43 41 42 44 43 42 44 46 46 46 47 49 51 50 51 51 52 52 51 49 48 48 47 46 45 44 44 43 42 41 41 40 40 40
28 29 32 30 31 33 35 37 38 40 41 43 44 44 45 44 43 45 44 45 47 48 48 51 51 50 51 52 51 50 49 48 47 46 46 45 45 43 43 42 41 41 41 41
29 30 30 29 30 32 34 36 38 37 39 42 44 45 45 46 46 45 44 45 46 47 47 48 49 49 50 50 51 51 49 48 48 47 47 46 45 44 44 43 43 42 42 41
29 29 29 29 29 30 33 34 36 37 38 40 42 45 46 46 48 47 45 44 45 47 48 48 48 48 48 49 50 50 49 48 48 48 47 46 45 45 45 44 43 42 41 40
29 29 28 27 28 31 34 34 35 36 38 40 41 42 45 46 48 48 47 45 44 45 46 47 47 47 47 47 47 48 48 48 48 48 47 46 45 45 45 44 43 42 41 39
29 31 28 27 29 31 32 34 36 37 38 40 42 41 43 46 48 48 47 46 45 45 46 47 47 47 46 46 46 46 46 47 47 47 47 46 46 45 44 43 42 41 39 38
28 28 29 29 30 31 31 33 35 37 38 39 41 42 44 46 48 48 47 46 46 46 46 48 48 47 46 46 46 46 46 46 45 46 45 45 45 43 43 42 41 40 39 39
27 27 29 30 31 32 33 33 35 36 37 38 40 43 43 45 47 47 47 47 47 47 47 47 47 47 48 48 47 46 45 44 44 44 44 44 44 43 42 42 41 40 39 39
25 26 28 29 31 32 34 35 36 37 37 37 39 42 44 44 46 47 47 47 47 48 49 47 48 49 48 48 47 47 46 45 44 44 43 44 43 42 42 41 40 40 39 39
26 26 28 28 31 32 33 34 35 36 37 38 38 40 43 46 46 47 47 47 48 49 50 50 50 49 49 49 48 47 46 45 45 44 43 43 42 42 41 40 39 39 38 38
26 27 29 29 31 32 33 35 37 37 38 38 38 38 40 43 46 47 47 46 48 48 49 50 50 49 49 48 47 46 45 45 44 44 43 42 42 41 40 39 38 37 37 37
24 26 27 28 30 32 32 34 36 38 37 38 38 39 40 41 43 45 45 46 47 47 47 47 47 48 48 47 46 45 44 44 43 43 42 41 41 41 40 39 38 37 36 36
23 24 25 26 28 30 32 33 35 37 37 37 37 38 40 41 41 43 44 44 44 45 45 45 45 45 46 46 46 46 44 43 42 41 41 41 41 41 40 39 38 37 36 36
24 25 25 26 27 28 31 33 35 36 37 38 37 37 39 40 40 41 41 41 42 43 43 44 44 44 45 46 46 45 44 42 41 40 40 40 39 38 38 37 37 36 36 36
25 25 25 26 28 29 30 32 35 37 37 38 38 37 38 38 39 40 40 40 40 40 41 41 41 41 42 43 44 44 44 42 42 41 40 39 38 37 37 37 36 35 35 35
24 24 25 25 26 28 30 31 33 35 36 37 38 38 38 37 38 39 39 40 39 40 39 39 39 39 39 39 40 41 42 42 41 40 39 38 38 37 37 37 37 36 36 35
24 24 24 23 24 25 27 29 30 32 34 36 37 37 36 37 37 38 39 39 40 40 39 39 39 38 38 37 37 38 39 40 40 39 39 39 38 37 37 37 37 36 36 35
23 25 24 24 24 24 24 26 28 29 32 35 36 37 36 37 38 37 37 37 38 38 38 38 38 38 38 37 36 36 36 38 39 39 40 40 39 38 37 36 36 35 35 34
22 23 24 25 24 24 24 25 27 29 30 32 35 36 37 37 37 36 36 37 37 37 37 37 36 36 36 36 36 35 36 37 37 37 38 38 38 37 36 35 34 34 33 33
21 21 22 24 24 24 24 26 27 28 30 30 32 34 35 36 36 35 35 37 37 36 35 34 34 34 34 35 35 34 35 35 35 35 35 36 36 35 35 34 33 32 32 31
20 20 19 21 21 23 24 25 26 27 28 29 29 32 34 35 36 35 35 35 36 35 34 34 33 32 32 33 33 33 33 33 33 33 33 34 34 34 34 33 33 32 32 31
17 17 17 18 19 20 22 23 24 25 27 28 29 31 33 34 34 34 34 34 35 35 35 34 33 32 31 30 30 30 30 30 31 32 32 32 32 32 32 31 31 31 31 30
15 14 14 14 15 17 19 21 22 24 26 26 28 29 31 32 32 32 33 33 34 35 35 34 32 31 30 29 28 28 28 28 29 30 30 30 30 30 30 29 28 28 29 29
14 13 12 12 13 15 17 19 21 22 23 24 25 27 29 30 31 32 32 32 32 32 32 31 31 29 28 27 27 27 26 26 27 28 28 28 28 29 29 28 27 27 27 27
11 10 10 10 12 14 16 18 20 21 22 22 23 25 26 27 29 30 30 29 30 30 30 30 29 28 28 27 26 26 26 26 26 26 26 27 27 27 26 26 26 26 26 25

GEFSNGP_500_meanwind_162.txt.gz
Wind_Speed
28 28 30 31 32 34 36 37 39 37 37 35 34 34 36 40 43 45 47 49 51 53 54 55 55 56 58 57 56 55 54 53 51 50 50 49 48 48 47 46 45 44 43 42
30 29 32 32 31 33 35 36 37 37 37 36 36 36 37 39 42 44 46 48 49 51 53 55 54 55 57 57 57 56 54 53 52 51 51 50 49 49 48 47 46 45 44 43
31 30 32 31 29 32 34 35 35 36 36 37 38 38 38 39 42 44 47 49 50 51 52 54 55 55 56 57 57 56 54 53 53 52 51 51 50 49 48 47 46 45 44 43
31 31 31 27 28 30 32 33 35 36 37 37 37 38 38 39 41 43 46 49 51 51 52 53 53 55 55 56 56 55 54 53 52 52 52 51 50 49 48 47 46 46 45 43
30 30 30 26 28 30 32 33 34 35 35 37 37 38 38 39 41 43 45 48 51 51 52 53 53 53 54 55 56 56 55 53 53 52 52 52 51 50 49 48 47 45 44 43
30 31 29 26 28 31 33 34 34 35 36 36 38 39 38 39 40 42 44 47 50 52 52 52 53 53 53 53 55 55 55 54 54 53 52 52 51 50 49 48 47 46 44 44
30 31 29 26 28 31 33 32 33 34 36 37 38 39 39 41 41 42 44 47 50 51 52 51 51 52 54 54 54 55 55 55 54 53 52 52 51 50 50 49 48 46 46 45
32 31 28 28 30 31 31 33 34 34 35 36 37 38 40 41 42 42 43 45 48 51 52 52 51 51 52 54 54 54 55 54 53 53 53 53 52 50 50 50 48 47 47 46
32 30 29 29 31 32 33 33 33 34 35 36 36 36 38 40 41 42 44 44 47 49 51 51 52 52 52 52 53 54 54 54 52 51 52 52 51 50 49 49 49 48 48 47
32 30 29 30 31 32 34 34 34 34 34 36 37 36 36 38 40 42 44 45 46 48 50 50 50 51 51 51 51 52 53 54 53 52 51 51 50 50 48 48 47 47 46 45
31 29 31 31 32 32 33 34 34 34 33 35 36 36 36 37 40 40 43 45 46 47 47 48 49 50 50 50 49 50 51 52 53 53 52 51 50 49 48 48 47 46 45 45
29 28 30 29 31 32 33 32 33 34 35 35 36 36 36 38 40 41 42 44 45 47 47 47 48 49 49 48 48 48 48 49 50 51 51 50 50 49 48 47 47 46 45 44
30 29 28 27 28 30 31 32 32 32 34 35 36 37 37 38 39 41 42 43 45 45 45 46 46 47 48 48 48 47 46 46 46 47 48 48 48 48 48 47 46 45 43 42
30 29 27 26 27 28 29 30 31 31 32 34 36 37 37 37 39 40 42 43 44 44 43 44 45 45 46 47 48 47 46 45 45 46 46 47 47 46 46 46 45 43 41 41
28 27 26 26 27 27 28 28 28 29 30 31 33 34 36 37 38 40 41 42 43 43 43 44 45 44 45 45 46 46 46 46 46 46 46 46 45 45 44 43 43 41 40 40
26 26 26 26 26 27 27 27 26 26 27 28 30 32 34 36 37 39 40 41 41 42 42 43 43 44 43 44 44 44 44 43 43 44 43 43 43 42 42 42 42 42 41 41
24 24 25 25 25 26 27 27 27 26 26 28 28 30 32 35 36 37 37 39 40 40 41 42 42 42 43 43 44 43 43 42 42 41 41 41 40 40 39 39 40 41 41 40
24 24 24 25 25 25 26 27 27 27 27 28 29 29 31 33 35 35 35 36 38 39 40 40 41 41 42 42 42 43 42 41 41 40 40 40 39 39 39 38 38 37 36 36
24 25 25 26 26 26 27 28 28 28 29 29 30 30 30 32 34 34 34 35 37 37 38 39 40 40 41 42 41 41 41 40 39 39 38 38 38 38 38 37 37 36 35 33
25 26 26 26 26 27 28 28 27 27 27 28 29 29 29 30 32 34 34 34 35 35 36 37 38 38 38 39 38 38 39 38 38 37 37 37 37 37 37 36 35 34 33 32
25 26 26 26 26 26 27 27 26 25 25 26 27 28 29 30 31 32 33 33 34 35 35 36 37 37 36 36 36 35 36 36 36 36 35 35 35 35 34 34 33 32 32 32
25 25 25 25 25 25 25 25 25 24 25 25 26 27 27 28 30 31 32 33 33 34 35 35 36 36 35 35 34 33 34 34 35 34 33 33 33 34 33 32 31 31 31 30
25 25 25 24 23 23 23 23 23 22 22 23 23 25 26 26 27 28 29 32 33 34 35 35 35 35 35 35 34 33 33 33 33 32 32 31 31 31 31 30 30 29 29 29
24 24 23 22 22 22 21 21 21 20 20 21 21 22 24 25 25 26 27 30 32 34 34 34 33 34 35 35 35 34 33 33 32 32 32 31 30 30 29 29 29 29 29 28
23 23 22 20 20 20 19 19 18 18 18 18 19 20 21 22 24 26 26 28 31 32 32 32 33 33 34 34 34 34 33 32 31 30 29 29 29 30 29 29 28 28 28 27
21 21 20 19 18 18 17 17 18 19 18 18 19 19 19 21 23 24 25 27 29 30 30 29 30 30 32 32 33 32 32 31 31 29 28 28 28 28 27 27 28 27 27 26
19 19 18 17 16 15 15 15 16 16 16 16 17 18 19 21 22 22 23 25 27 28 28 27 27 28 29 30 31 31 30 30 29 28 28 27 27 26 26 26 26 26 26 25

GEFSNGP_500_meanwind_168.txt.gz
Wind_Speed
29 29 28 29 28 28 29 30 32 30 31 30 32 32 33 34 36 37 40 42 43 44 47 50 53 54 55 56 56 55 55 54 54 53 52 51 50 50 51 50 49 48 48 48
31 30 30 30 28 29 29 29 30 30 29 30 32 33 34 35 37 38 41 43 44 45 46 48 51 54 55 55 55 56 56 55 54 53 53 52 52 51 51 50 49 49 49 49
32 30 30 28 27 28 28 28 29 28 26 28 31 33 34 36 38 39 41 43 45 45 47 48 50 53 55 55 54 54 54 55 55 54 54 53 53 52 51 50 49 50 50 49
32 31 30 27 27 28 29 28 28 28 27 28 29 31 33 36 39 39 41 43 46 47 48 48 50 52 55 56 55 55 55 55 55 55 54 53 53 52 51 50 49 49 48 48
33 32 30 27 26 27 28 28 28 29 29 29 29 30 31 34 38 40 41 43 45 47 49 48 49 51 53 54 55 55 55 54 54 55 55 53 52 51 51 50 49 49 48 47
32 33 31 27 27 28 29 27 27 29 30 30 30 30 31 33 35 39 41 43 45 46 48 49 49 50 51 53 55 55 55 55 54 55 55 55 53 52 51 50 49 48 48 47
32 33 32 28 28 28 28 27 27 28 28 29 30 30 30 32 34 36 38 41 44 45 47 48 49 50 50 51 53 55 54 54 54 54 54 54 53 53 52 51 50 48 47 47
34 34 32 30 30 29 28 28 27 28 29 29 29 29 30 31 32 35 37 39 41 43 46 48 49 50 50 51 52 54 54 53 54 54 53 53 52 52 51 51 51 49 48 47
35 33 31 31 31 30 30 29 29 29 29 30 29 30 31 31 32 33 35 39 41 42 44 47 49 50 51 51 52 53 53 53 53 54 54 53 52 51 50 49 49 49 47 44
34 31 31 31 31 31 31 31 30 30 30 30 30 30 31 31 32 33 34 37 40 42 43 46 48 49 51 51 52 52 52 53 53 53 53 52 51 50 50 48 48 48 47 46
33 31 31 31 31 31 30 29 29 30 30 30 30 31 32 32 33 34 35 36 38 40 42 44 46 49 49 49 51 52 52 52 52 52 52 51 50 49 49 48 46 46 47 46
32 30 31 30 30 30 29 28 29 29 29 29 29 30 31 32 32 34 35 36 37 39 40 41 43 46 48 47 48 49 50 51 51 50 50 50 49 48 47 47 45 44 44 46
31 29 29 28 28 28 28 28 28 28 28 28 29 30 30 30 30 31 33 35 37 38 39 40 41 44 45 46 46 47 48 48 49 49 49 49 48 47 45 45 44 44 43 44
30 28 27 27 27 28 28 28 28 28 28 27 28 29 30 29 29 30 31 32 35 38 39 39 40 42 44 45 46 47 48 48 48 49 48 47 47 46 45 44 44 44 43 43
28 27 26 26 26 27 28 28 28 27 27 27 27 28 28 29 28 28 29 30 33 35 38 39 40 41 43 43 44 45 47 47 47 48 48 46 46 45 45 44 44 44 44 43
27 26 25 25 26 26 26 26 26 26 26 26 26 26 26 27 27 27 27 29 31 32 34 37 38 40 42 42 42 43 45 46 47 48 47 46 45 45 44 44 44 43 43 43
26 26 25 25 25 25 25 25 25 24 24 24 24 25 25 25 26 26 26 28 30 31 33 35 35 38 40 40 42 42 43 44 45 47 46 46 45 44 44 44 43 43 43 43
25 25 24 24 24 24 24 24 24 23 23 23 24 24 24 24 24 26 26 26 28 30 31 33 34 35 37 38 40 41 42 43 43 44 44 45 45 44 43 42 42 42 42 42
24 24 24 23 23 23 23 23 23 23 22 22 23 23 24 24 24 26 27 27 26 28 30 32 34 35 35 36 37 38 40 42 42 42 43 43 42 41 41 41 41 41 40 39
23 23 23 22 22 21 21 22 22 22 22 22 22 23 23 24 25 26 26 27 27 28 30 32 34 34 35 35 36 36 37 39 40 41 41 41 40 40 40 40 39 38 37 37
23 23 22 22 21 21 21 21 22 22 22 22 22 22 22 23 24 25 25 25 26 28 29 30 32 34 34 34 34 35 36 37 38 39 39 38 38 38 38 38 37 35 35 34
23 22 22 21 21 21 22 21 21 21 21 21 20 20 20 21 22 23 23 24 25 27 28 28 30 32 33 33 33 33 34 35 36 37 37 36 36 35 35 35 35 34 33 33
22 22 21 21 21 21 20 20 21 20 19 19 19 18 19 19 20 21 22 23 25 26 27 28 28 29 30 31 32 32 33 34 35 35 36 36 35 34 34 34 34 33 33 32
21 21 21 21 21 20 20 20 20 19 19 19 18 18 18 18 18 19 19 20 22 24 26 26 28 29 29 30 31 32 32 33 33 34 35 35 34 33 33 33 32 32 32 31
21 21 20 20 20 20 19 19 18 18 18 17 17 17 17 17 17 17 18 20 21 22 24 25 26 26 28 29 30 31 31 32 33 33 33 33 32 32 32 31 30 30 30 30
20 19 19 19 20 19 18 17 17 17 17 17 17 17 16 16 17 17 18 19 20 21 23 24 25 25 26 28 29 30 30 30 31 32 32 32 31 30 30 30 29 28 28 29
19 19 19 19 19 18 18 17 16 16 15 15 15 15 15 15 16 17 17 18 19 20 21 22 23 25 26 27 28 30 31 31 32 32 32 31 31 29 28 28 28 27 27 27

GEFSNGP_500_meanwind_174.txt.gz
Wind_Speed
35 33 33 32 31 31 32 33 33 31 31 29 29 30 31 32 32 32 32 35 37 38 40 41 42 44 45 46 46 48 50 51 50 50 50 50 50 49 48 47 46 45 45 45
36 34 34 34 32 33 33 33 34 33 30 28 29 29 30 31 33 34 34 35 37 39 40 41 42 43 44 46 47 50 51 51 51 52 52 52 51 50 48 47 47 46 45 45
37 35 37 35 32 32 33 33 34 33 31 30 29 28 29 30 31 33 34 35 37 39 40 41 42 43 44 46 49 50 51 51 51 51 52 52 52 51 49 47 47 47 46 45
39 37 38 34 32 33 34 33 33 33 32 31 30 29 29 29 30 31 33 35 36 38 40 41 42 43 44 46 49 51 50 51 51 50 49 50 51 51 50 49 47 46 46 45
39 39 39 34 32 33 34 33 31 32 31 31 30 30 30 30 30 31 32 34 36 38 39 40 41 43 44 46 47 48 49 49 51 50 49 48 50 50 50 49 48 46 46 45
38 38 38 34 33 33 34 33 30 31 30 30 30 31 30 31 31 31 32 33 35 38 40 41 42 43 44 45 46 48 47 49 51 51 50 49 50 50 50 49 48 47 47 46
37 38 37 34 34 34 34 33 33 32 31 31 31 31 32 32 32 32 33 34 35 36 38 41 43 44 44 44 46 47 48 48 50 52 51 51 50 50 50 49 48 47 47 46
37 38 37 35 36 36 35 35 34 33 32 31 31 32 32 32 32 33 32 33 34 35 37 39 43 45 46 45 46 47 48 49 49 50 52 52 51 51 50 50 48 46 45 44
38 37 35 36 37 36 36 35 35 34 33 32 32 31 32 32 33 33 33 33 34 35 36 37 40 43 45 46 47 47 48 49 49 50 51 52 52 51 50 50 49 47 45 44
38 36 36 36 37 37 36 35 34 34 33 33 32 31 30 31 32 33 34 35 35 36 37 37 38 41 43 45 47 47 47 47 48 48 48 49 50 50 49 48 48 47 46 45
39 37 37 36 35 35 35 34 33 33 32 32 31 30 30 31 31 31 32 34 35 36 38 38 38 39 41 44 46 47 47 46 47 47 47 48 48 48 47 47 47 46 45 44
38 36 36 35 35 35 34 33 33 32 31 31 31 30 29 30 31 31 32 33 34 35 35 36 36 37 39 42 44 46 47 47 47 46 45 46 47 48 48 47 46 46 45 44
37 36 37 36 35 35 34 33 33 32 31 30 30 30 29 29 29 30 31 32 33 34 34 34 34 35 37 39 41 44 46 47 48 47 46 46 47 47 48 47 47 46 44 43
35 36 36 35 35 33 33 32 32 31 31 30 30 29 28 28 28 28 28 29 31 32 33 33 33 34 35 36 38 40 43 45 47 47 47 45 45 46 47 47 47 45 44 44
34 34 34 33 32 31 31 31 31 31 31 30 29 29 28 27 27 27 27 27 28 30 32 32 33 33 34 35 37 38 40 42 44 45 45 44 44 45 45 46 46 45 45 44
33 32 31 30 29 29 29 29 29 29 29 29 28 28 28 28 27 27 27 27 27 28 28 30 31 33 34 35 36 37 38 39 41 43 44 44 44 44 44 44 44 45 44 43
30 29 29 28 27 27 28 28 28 27 27 27 28 27 27 27 28 27 26 26 26 26 26 27 29 31 33 34 35 36 36 37 39 41 42 43 43 43 43 43 43 44 42 41
28 27 27 27 27 27 27 28 27 26 26 26 27 27 26 26 26 26 25 25 25 25 26 27 27 29 31 33 33 35 36 37 38 38 40 41 42 43 42 42 41 42 42 41
27 27 27 26 26 27 26 26 25 24 24 25 25 25 24 25 25 25 25 25 25 25 26 26 27 27 28 31 32 33 35 36 37 38 38 38 39 40 41 41 41 41 41 40
26 26 26 26 26 27 26 25 24 23 22 23 23 23 23 23 24 25 25 25 25 26 26 26 26 27 28 29 31 32 33 35 36 36 36 37 37 38 38 39 39 39 39 38
27 26 26 26 26 26 25 25 24 23 23 23 23 23 23 24 24 24 24 24 24 25 25 25 26 27 28 28 29 31 32 33 34 34 35 35 35 35 35 36 36 36 37 36
27 27 26 26 26 25 25 24 24 24 24 23 23 23 23 23 23 23 23 23 23 23 24 25 26 26 27 27 27 28 29 31 33 34 34 34 33 33 33 33 33 34 34 34
27 27 26 25 25 25 24 24 24 24 23 23 23 23 23 22 22 22 22 23 23 23 23 24 25 25 25 27 27 27 28 30 31 33 33 33 32 32 31 31 31 32 33 32
26 26 25 24 24 24 23 23 22 22 21 21 21 21 21 21 22 22 22 23 23 22 22 23 24 24 24 25 26 26 26 28 29 30 31 31 31 31 30 30 30 30 30 30
25 24 24 23 23 23 23 22 21 21 20 20 21 21 21 21 21 22 22 22 23 23 22 22 23 23 22 23 24 24 25 25 27 28 29 29 29 29 29 28 28 28 28 28
24 23 22 22 22 22 22 21 21 20 20 20 20 20 20 20 19 19 20 21 21 21 21 20 21 22 22 21 22 23 24 25 26 26 27 28 28 27 27 27 27 27 27 27
23 22 22 21 21 21 20 20 20 19 19 19 18 18 17 17 16 16 16 17 18 18 18 18 19 20 21 21 21 22 24 25 25 26 27 27 27 26 27 27 28 27 27 27

GEFSNGP_500_meanwind_180.txt.gz
Wind_Speed
35 33 34 34 33 32 32 33 34 32 32 29 30 29 28 27 28 28 29 29 30 30 31 33 33 35 37 37 40 42 42 40 40 42 43 43 45 45 45 47 48 48 46 46
36 35 36 36 34 33 34 34 34 34 31 29 29 28 28 28 28 28 28 29 30 31 32 33 34 35 37 39 41 42 42 41 42 42 43 44 46 47 46 46 46 46 45 45
38 36 38 37 33 34 34 34 33 33 31 30 28 28 28 29 29 28 28 28 29 31 32 33 34 36 37 39 40 41 41 42 43 43 44 44 45 47 48 46 44 46 45 44
39 39 39 36 33 33 33 32 31 31 30 30 29 28 28 29 29 28 28 28 29 30 30 32 34 35 38 40 40 42 42 42 43 44 45 46 46 46 47 48 46 46 46 45
40 40 40 35 33 33 33 31 30 31 31 30 29 29 28 29 29 28 28 29 29 30 30 32 33 35 37 39 40 40 42 42 43 44 45 47 47 46 45 46 47 47 47 46
40 41 41 36 34 34 34 32 30 31 31 30 30 30 29 30 30 30 29 28 29 30 30 31 32 34 35 37 39 40 41 42 43 43 45 46 45 44 44 45 46 45 46 46
40 41 41 36 34 33 33 32 31 31 30 30 30 30 29 29 29 29 29 29 29 29 29 30 31 33 35 36 37 40 41 42 42 43 45 45 44 43 43 44 45 44 44 44
40 41 39 35 34 33 33 33 32 32 31 31 31 30 30 29 29 29 29 29 30 30 30 30 31 32 34 35 36 38 39 41 42 43 44 44 43 44 45 45 45 45 44 43
40 40 36 35 35 34 33 33 32 32 32 32 31 30 30 30 30 30 30 30 30 30 30 31 31 32 33 34 35 36 37 39 41 43 43 43 43 43 44 44 45 44 43 43
39 37 35 35 34 33 34 33 33 32 32 31 31 30 30 30 29 28 28 29 30 30 30 30 31 31 32 33 33 34 36 38 40 42 43 43 43 43 44 44 44 44 43 42
39 36 36 34 34 34 34 34 33 33 32 32 32 31 30 30 29 28 28 28 29 29 30 30 30 30 31 32 32 32 34 36 38 40 41 43 44 44 44 43 43 43 44 44
38 35 35 34 33 34 34 34 34 33 32 32 31 31 30 30 29 29 29 28 29 29 29 29 29 30 30 31 31 31 31 32 35 37 39 41 43 44 44 43 43 43 43 43
36 34 34 33 32 33 33 33 33 32 31 30 29 29 29 29 29 29 29 29 28 28 29 29 29 30 30 31 32 33 32 32 33 35 36 39 41 42 42 43 43 43 44 43
33 34 33 32 32 33 33 32 31 30 30 28 28 28 27 28 28 28 29 28 28 28 28 28 28 29 29 31 32 33 33 33 33 33 35 37 39 41 42 42 43 43 43 42
32 32 32 32 32 32 32 31 30 29 28 28 28 27 27 27 27 28 28 28 27 26 26 26 26 27 28 29 30 32 33 33 33 33 34 36 37 38 40 42 42 43 43 41
31 31 31 31 30 30 30 29 28 27 27 27 27 27 27 27 27 26 26 26 26 26 25 25 25 26 27 27 28 30 31 32 32 33 33 34 36 36 37 39 40 41 41 40
28 28 28 28 28 27 27 26 26 26 25 25 25 25 26 25 25 24 24 25 25 25 25 26 25 26 26 26 27 28 29 30 31 32 32 32 33 34 35 36 38 39 39 39
26 26 26 26 26 25 24 24 25 25 24 25 24 24 25 24 23 24 24 24 24 24 25 26 26 26 26 27 26 27 28 29 30 31 31 32 31 32 34 35 35 37 38 39
25 25 25 25 24 24 24 24 24 24 24 24 24 24 24 24 24 24 24 24 24 24 25 25 25 26 26 27 27 27 27 28 29 31 32 31 31 31 33 34 35 34 35 36
24 24 24 23 23 23 23 24 24 24 24 24 24 24 23 24 24 24 24 24 24 24 24 25 25 26 26 26 26 26 26 27 29 30 32 32 31 31 32 34 35 34 34 34
24 23 23 23 23 23 23 23 24 24 24 24 24 23 23 23 23 22 22 22 22 23 23 24 25 25 25 25 25 25 25 26 27 29 31 31 31 30 31 33 34 34 34 33
23 23 23 23 23 23 24 24 23 23 23 23 23 23 22 22 21 20 20 20 20 21 21 22 23 25 25 25 25 25 25 25 26 27 28 29 30 30 30 31 32 34 33 32
23 23 23 23 23 23 23 23 23 22 22 22 22 22 21 21 20 19 20 20 20 20 20 20 21 23 24 24 24 24 24 23 24 25 25 26 28 29 29 30 31 32 32 32
23 23 23 23 23 22 22 22 21 20 20 21 21 21 20 19 19 19 19 20 20 20 20 20 20 21 22 22 22 22 22 22 22 23 24 24 24 26 28 29 30 31 31 31
23 23 23 23 22 21 21 20 20 19 19 19 19 19 19 18 18 18 19 19 19 20 20 19 20 20 21 21 21 21 21 21 22 22 23 24 23 24 26 27 29 30 30 29
23 23 22 22 21 20 20 19 19 18 18 17 17 17 17 17 16 16 16 17 18 18 18 18 18 19 20 20 20 20 20 21 21 22 23 24 24 25 25 26 27 28 28 28
22 21 21 20 20 20 19 18 18 17 17 16 16 15 15 15 15 15 15 15 15 15 16 16 16 16 17 18 19 19 20 20 20 22 23 24 25 25 25 25 26 27 27 27

GEFSNGP_500_meanwind_186.txt.gz
Wind_Speed
41 40 40 39 39 39 40 40 41 40 39 36 35 36 35 33 31 31 30 31 31 30 29 29 31 31 32 32 33 35 35 35 36 37 38 38 38 39 40 39 40 41 41 42
42 41 42 42 39 38 39 40 40 39 37 35 36 36 34 32 30 30 30 30 30 30 30 30 30 31 32 33 33 33 34 34 34 37 38 37 37 38 40 39 40 40 41 41
44 42 44 44 39 39 39 39 39 38 36 36 36 35 33 32 31 31 31 30 30 30 30 30 31 31 31 32 33 33 34 35 35 36 37 38 38 38 38 38 40 39 41 41
45 45 46 43 40 40 40 39 38 38 36 36 36 34 32 32 32 32 31 30 31 31 31 30 30 30 30 31 32 33 35 36 38 38 37 38 38 38 38 38 38 39 40 41
45 46 47 42 40 40 41 39 38 38 36 36 36 34 32 33 33 32 32 32 32 32 31 30 30 31 30 30 30 31 33 35 37 39 38 38 39 39 40 39 39 39 38 40
45 46 46 41 40 40 42 41 38 38 37 36 35 35 32 32 32 32 32 32 32 32 31 30 30 30 30 30 30 30 31 33 35 36 37 38 38 39 39 40 40 39 38 39
43 45 45 42 41 41 41 40 38 38 37 36 35 34 32 31 32 31 31 31 30 30 30 30 30 29 29 29 29 30 30 31 33 34 36 37 39 40 39 39 39 38 38 38
42 44 43 41 42 41 40 39 38 37 36 36 35 34 33 32 31 31 30 30 29 28 28 29 29 29 28 28 28 28 29 30 31 33 35 36 38 38 38 39 39 39 38 38
43 42 41 41 41 40 39 39 38 37 37 36 35 33 32 32 31 30 29 29 28 27 27 27 27 27 27 27 27 27 27 28 29 31 33 34 35 37 37 38 38 37 38 38
42 40 40 39 39 39 39 39 38 37 36 35 34 32 31 31 30 30 29 28 28 27 26 26 26 26 27 27 27 27 27 27 28 30 31 33 34 36 37 37 37 37 38 38
41 39 39 38 38 38 37 37 37 36 35 35 34 32 31 30 30 29 28 28 28 27 26 26 26 26 26 26 27 27 27 28 29 29 30 31 33 34 35 36 36 36 37 38
40 38 40 38 37 36 36 36 36 35 35 34 34 32 31 30 29 28 28 28 28 27 26 26 27 27 26 26 26 27 28 28 28 29 29 30 31 32 33 35 35 35 36 36
38 37 38 37 35 35 35 35 34 34 33 32 31 31 30 29 28 28 28 27 27 27 26 26 26 26 26 26 26 27 27 27 27 28 29 29 29 31 32 34 34 34 34 35
36 36 36 34 34 33 32 32 32 32 31 30 29 28 28 27 27 27 27 27 27 26 26 26 26 26 26 27 27 27 27 26 26 27 28 29 29 30 31 33 33 34 34 34
34 34 34 32 31 30 30 30 30 30 29 29 28 28 27 27 26 26 26 26 26 26 26 26 26 26 26 26 27 27 27 26 26 27 28 28 28 29 30 31 31 32 33 33
31 31 31 30 29 29 29 30 29 29 28 28 27 27 27 26 26 25 25 25 24 24 25 25 25 25 25 25 25 25 26 26 26 27 28 28 28 29 29 30 30 30 31 31
28 28 28 28 29 29 29 29 28 27 26 26 26 26 25 25 25 25 25 24 24 24 24 24 24 24 24 24 24 24 24 24 25 26 27 27 28 28 28 28 28 29 29 29
26 27 27 28 28 28 28 28 27 26 25 25 25 25 24 24 24 24 24 24 24 24 23 23 22 23 23 23 22 22 22 23 24 25 26 26 27 27 27 27 27 27 28 28
25 26 26 26 26 26 25 25 25 25 25 25 25 25 24 24 25 25 25 24 23 23 22 23 22 22 22 23 22 22 22 23 23 24 25 25 26 27 27 27 27 27 28 28
24 24 24 25 24 24 24 24 24 24 25 25 25 24 24 24 25 25 25 24 24 23 23 23 22 23 23 23 23 23 23 22 23 24 25 25 25 26 26 26 27 27 28 28
23 23 23 23 23 23 23 23 23 24 24 25 25 24 24 24 24 23 23 23 23 23 23 23 22 22 23 23 23 23 23 23 23 24 25 26 26 26 26 26 26 28 27 27
22 23 23 23 23 23 23 24 24 24 24 24 24 24 23 23 23 22 23 23 23 23 22 22 22 21 22 22 23 23 23 23 23 23 25 26 26 26 26 26 26 27 27 27
22 22 23 23 24 23 23 23 24 24 23 23 22 22 22 22 22 22 23 23 22 22 21 21 21 21 21 22 22 23 22 23 23 23 24 25 26 26 26 25 25 26 26 27
23 23 23 23 23 23 23 23 23 23 22 22 22 22 22 21 21 22 22 22 21 21 21 21 21 21 20 21 22 22 22 22 22 22 23 24 24 24 25 25 25 25 25 25
23 23 22 22 22 22 22 22 21 21 20 20 21 20 20 20 20 20 20 20 19 19 19 20 20 19 19 20 21 21 20 20 21 22 22 22 22 23 23 24 24 25 24 24
22 22 22 22 22 21 20 20 19 19 19 19 19 19 19 19 18 18 18 18 18 18 19 19 19 18 18 18 19 19 19 19 19 20 20 21 21 22 22 23 24 24 23 23
21 21 21 21 21 20 19 19 18 18 18 18 17 17 17 17 16 17 17 17 18 18 18 18 18 18 17 17 18 18 18 18 18 19 20 21 21 21 21 21 22 23 23 23